Observation data for Aiken on 02/13/2018      Previous  Date  Next       Current Mesonet Observations  Soil Data  Daily Summary Page  Observations in Plain Language
KAI1 130600Z 12010KT M02/M12 A3025 RMK A01 T10241115  RH  050%=      5-min Rain = 0
KAI1 130601Z 11010KT M02/M12 A3025 RMK A01 T10241115  RH  050%=      5-min Rain = 0
KAI1 130602Z 11010KT M03/M12 A3025 RMK A01 T10251116  RH  050%=      5-min Rain = 0
KAI1 130603Z 11009KT M03/M12 A3025 RMK A01 T10251116  RH  050%=      5-min Rain = 0
KAI1 130604Z 11010KT M03/M12 A3025 RMK A01 T10251116  RH  050%=      5-min Rain = 0
KAI1 130605Z 11010KT M03/M12 A3026 RMK A01 T10251116  RH  050%=      5-min Rain = 0
KAI1 130606Z 11010KT M03/M12 A3026 RMK A01 T10261116  RH  050%=      5-min Rain = 0
KAI1 130607Z 11009KT M03/M12 A3026 RMK A01 T10261116  RH  050%=      5-min Rain = 0
KAI1 130608Z 11010KT M03/M12 A3026 RMK A01 T10261116  RH  050%=      5-min Rain = 0
KAI1 130609Z 10009KT M03/M12 A3026 RMK A01 T10261115  RH  050%=      5-min Rain = 0
KAI1 130610Z 11008KT M03/M12 A3026 RMK A01 T10261116  RH  050%=      5-min Rain = 0
KAI1 130611Z 11008KT M03/M12 A3026 RMK A01 T10261116  RH  050%=      5-min Rain = 0
KAI1 130612Z 11008KT M03/M12 A3026 RMK A01 T10271117  RH  050%=      5-min Rain = 0
KAI1 130613Z 10008KT M03/M12 A3026 RMK A01 T10281117  RH  050%=      5-min Rain = 0
KAI1 130614Z 10008KT M03/M12 A3026 RMK A01 T10291118  RH  050%=      5-min Rain = 0
KAI1 130615Z 10009KT M03/M12 A3026 RMK A01 T10291117  RH  051%=      5-min Rain = 0
KAI1 130616Z 10008KT M03/M12 A3026 RMK A01 T10291116  RH  051%=      5-min Rain = 0
KAI1 130617Z 10008KT M03/M12 A3026 RMK A01 T10291116  RH  051%=      5-min Rain = 0
KAI1 130618Z 10009KT M03/M12 A3026 RMK A01 T10291116  RH  051%=      5-min Rain = 0
KAI1 130619Z 10009KT M03/M12 A3026 RMK A01 T10291116  RH  051%=      5-min Rain = 0
KAI1 130620Z 10009KT M03/M12 A3026 RMK A01 T10291116  RH  051%=      5-min Rain = 0
KAI1 130621Z 10009KT M03/M12 A3026 RMK A01 T10291115  RH  051%=      5-min Rain = 0
KAI1 130622Z 10008KT M03/M12 A3026 RMK A01 T10291116  RH  051%=      5-min Rain = 0
KAI1 130623Z 10008KT M03/M12 A3026 RMK A01 T10301116  RH  051%=      5-min Rain = 0
KAI1 130624Z 10009KT M03/M12 A3026 RMK A01 T10301116  RH  051%=      5-min Rain = 0
KAI1 130625Z 10009KT M03/M12 A3025 RMK A01 T10301116  RH  052%=      5-min Rain = 0
KAI1 130626Z 10009KT M03/M12 A3025 RMK A01 T10301116  RH  052%=      5-min Rain = 0
KAI1 130627Z 10009KT M03/M12 A3025 RMK A01 T10301116  RH  052%=      5-min Rain = 0
KAI1 130628Z 10009KT M03/M12 A3025 RMK A01 T10301116  RH  052%=      5-min Rain = 0
KAI1 130629Z 10009KT M03/M12 A3025 RMK A01 T10301116  RH  052%=      5-min Rain = 0
KAI1 130630Z 10010KT M03/M12 A3025 RMK A01 T10311117  RH  052%=      5-min Rain = 0
KAI1 130631Z 10009KT M03/M12 A3025 RMK A01 T10311116  RH  052%=      5-min Rain = 0
KAI1 130632Z 10009KT M03/M12 A3025 RMK A01 T10311116  RH  052%=      5-min Rain = 0
KAI1 130633Z 10008KT M03/M12 A3026 RMK A01 T10321116  RH  052%=      5-min Rain = 0
KAI1 130634Z 11008KT M03/M12 A3026 RMK A01 T10321116  RH  052%=      5-min Rain = 0
KAI1 130635Z 11007KT M03/M12 A3026 RMK A01 T10321116  RH  052%=      5-min Rain = 0
KAI1 130636Z 10007KT M03/M12 A3026 RMK A01 T10321116  RH  052%=      5-min Rain = 0
KAI1 130637Z 10007KT M03/M12 A3026 RMK A01 T10321116  RH  052%=      5-min Rain = 0
KAI1 130638Z 10007KT M03/M12 A3026 RMK A01 T10321115  RH  053%=      5-min Rain = 0
KAI1 130639Z 10006KT M03/M12 A3026 RMK A01 T10321115  RH  053%=      5-min Rain = 0
KAI1 130640Z 10007KT M03/M12 A3026 RMK A01 T10321115  RH  053%=      5-min Rain = 0
KAI1 130641Z 10007KT M03/M12 A3026 RMK A01 T10331115  RH  053%=      5-min Rain = 0
KAI1 130642Z 09006KT M03/M12 A3026 RMK A01 T10331115  RH  053%=      5-min Rain = 0
KAI1 130643Z 09005KT M03/M12 A3026 RMK A01 T10341116  RH  053%=      5-min Rain = 0
KAI1 130644Z 08005KT M03/M12 A3026 RMK A01 T10341117  RH  053%=      5-min Rain = 0
KAI1 130645Z 08005KT M04/M12 A3026 RMK A01 T10351117  RH  053%=      5-min Rain = 0
KAI1 130646Z 08005KT M04/M12 A3027 RMK A01 T10371116  RH  054%=      5-min Rain = 0
KAI1 130647Z 07005KT M04/M12 A3027 RMK A01 T10381116  RH  054%=      5-min Rain = 0
KAI1 130648Z 07006KT M04/M12 A3027 RMK A01 T10391116  RH  055%=      5-min Rain = 0
KAI1 130649Z 07006KT M04/M12 A3027 RMK A01 T10391116  RH  055%=      5-min Rain = 0
KAI1 130650Z 08007KT M04/M12 A3027 RMK A01 T10401115  RH  056%=      5-min Rain = 0
KAI1 130651Z 08007KT M04/M11 A3027 RMK A01 T10401114  RH  056%=      5-min Rain = 0
KAI1 130652Z 06006KT M04/M11 A3027 RMK A01 T10401114  RH  056%=      5-min Rain = 0
KAI1 130653Z 04005KT M04/M12 A3027 RMK A01 T10411115  RH  056%=      5-min Rain = 0
KAI1 130654Z 04005KT M04/M12 A3027 RMK A01 T10421119  RH  055%=      5-min Rain = 0
KAI1 130655Z 05005KT M05/M12 A3027 RMK A01 T10451124  RH  054%=      5-min Rain = 0
KAI1 130656Z 05005KT M05/M13 A3027 RMK A01 T10471127  RH  054%=      5-min Rain = 0
KAI1 130657Z 06005KT M05/M13 A3027 RMK A01 T10491129  RH  053%=      5-min Rain = 0
KAI1 130658Z 06005KT M05/M13 A3027 RMK A01 T10511131  RH  054%=      5-min Rain = 0
KAI1 130659Z 06006KT M05/M13 A3027 RMK A01 T10521131  RH  054%=      5-min Rain = 0
KAI1 130700Z 06006KT M05/M13 A3027 RMK A01 T10531130  RH  054%=      5-min Rain = 0
KAI1 130701Z 06005KT M05/M13 A3027 RMK A01 T10541131  RH  054%=      5-min Rain = 0
KAI1 130702Z 06006KT M05/M13 A3027 RMK A01 T10541131  RH  055%=      5-min Rain = 0
KAI1 130703Z 06005KT M06/M13 A3027 RMK A01 T10551132  RH  055%=      5-min Rain = 0
KAI1 130704Z 05006KT M06/M13 A3027 RMK A01 T10561133  RH  054%=      5-min Rain = 0
KAI1 130705Z 05006KT M06/M13 A3027 RMK A01 T10561133  RH  054%=      5-min Rain = 0
KAI1 130706Z 05006KT M06/M13 A3027 RMK A01 T10571134  RH  054%=      5-min Rain = 0
KAI1 130707Z 04006KT M06/M14 A3027 RMK A01 T10581135  RH  054%=      5-min Rain = 0
KAI1 130708Z 04006KT M06/M14 A3027 RMK A01 T10591136  RH  054%=      5-min Rain = 0
KAI1 130709Z 04006KT M06/M14 A3027 RMK A01 T10591136  RH  055%=      5-min Rain = 0
KAI1 130710Z 04006KT M06/M14 A3027 RMK A01 T10601136  RH  055%=      5-min Rain = 0
KAI1 130711Z 04006KT M06/M14 A3027 RMK A01 T10601137  RH  055%=      5-min Rain = 0
KAI1 130712Z 04005KT M06/M14 A3027 RMK A01 T10611137  RH  055%=      5-min Rain = 0
KAI1 130713Z 04005KT M06/M14 A3027 RMK A01 T10611137  RH  055%=      5-min Rain = 0
KAI1 130714Z 04006KT M06/M14 A3027 RMK A01 T10611136  RH  055%=      5-min Rain = 0
KAI1 130715Z 05006KT M06/M14 A3027 RMK A01 T10611135  RH  056%=      5-min Rain = 0
KAI1 130716Z 05005KT M06/M13 A3027 RMK A01 T10601133  RH  056%=      5-min Rain = 0
KAI1 130717Z 05005KT M06/M13 A3027 RMK A01 T10601133  RH  056%=      5-min Rain = 0
KAI1 130718Z 05005KT M06/M13 A3027 RMK A01 T10591133  RH  056%=      5-min Rain = 0
KAI1 130719Z 06005KT M06/M13 A3027 RMK A01 T10591133  RH  056%=      5-min Rain = 0
KAI1 130720Z 06005KT M06/M13 A3027 RMK A01 T10591133  RH  056%=      5-min Rain = 0
KAI1 130721Z 06005KT M06/M13 A3027 RMK A01 T10591132  RH  056%=      5-min Rain = 0
KAI1 130722Z 06005KT M06/M13 A3027 RMK A01 T10591132  RH  056%=      5-min Rain = 0
KAI1 130723Z 06005KT M06/M13 A3027 RMK A01 T10591132  RH  057%=      5-min Rain = 0
KAI1 130724Z 06005KT M06/M13 A3027 RMK A01 T10591132  RH  057%=      5-min Rain = 0
KAI1 130725Z 06004KT M06/M13 A3027 RMK A01 T10591132  RH  057%=      5-min Rain = 0
KAI1 130726Z 06005KT M06/M13 A3027 RMK A01 T10601133  RH  056%=      5-min Rain = 0
KAI1 130727Z 06005KT M06/M13 A3027 RMK A01 T10601134  RH  056%=      5-min Rain = 0
KAI1 130728Z 06005KT M06/M14 A3027 RMK A01 T10611135  RH  056%=      5-min Rain = 0
KAI1 130729Z 06005KT M06/M14 A3027 RMK A01 T10611135  RH  056%=      5-min Rain = 0
KAI1 130730Z 06005KT M06/M13 A3027 RMK A01 T10611134  RH  056%=      5-min Rain = 0
KAI1 130731Z 06005KT M06/M13 A3027 RMK A01 T10611133  RH  057%=      5-min Rain = 0
KAI1 130732Z 06005KT M06/M13 A3027 RMK A01 T10611133  RH  057%=      5-min Rain = 0
KAI1 130733Z 06005KT M06/M13 A3027 RMK A01 T10601134  RH  056%=      5-min Rain = 0
KAI1 130734Z 06004KT M06/M13 A3027 RMK A01 T10611134  RH  056%=      5-min Rain = 0
KAI1 130735Z 05004KT M06/M14 A3027 RMK A01 T10611135  RH  056%=      5-min Rain = 0
KAI1 130736Z 05004KT M06/M14 A3027 RMK A01 T10621136  RH  056%=      5-min Rain = 0
KAI1 130737Z 05004KT M06/M14 A3027 RMK A01 T10631137  RH  056%=      5-min Rain = 0
KAI1 130738Z 05004KT M06/M14 A3027 RMK A01 T10641137  RH  056%=      5-min Rain = 0
KAI1 130739Z 05004KT M06/M14 A3027 RMK A01 T10641137  RH  056%=      5-min Rain = 0
KAI1 130740Z 06004KT M06/M14 A3027 RMK A01 T10641138  RH  056%=      5-min Rain = 0
KAI1 130741Z 06004KT M07/M14 A3026 RMK A01 T10651138  RH  056%=      5-min Rain = 0
KAI1 130742Z 07004KT M07/M14 A3026 RMK A01 T10651137  RH  056%=      5-min Rain = 0
KAI1 130743Z 07004KT M07/M14 A3026 RMK A01 T10651138  RH  056%=      5-min Rain = 0
KAI1 130744Z 07005KT M07/M14 A3026 RMK A01 T10651138  RH  056%=      5-min Rain = 0
KAI1 130745Z 07005KT M07/M14 A3026 RMK A01 T10661138  RH  057%=      5-min Rain = 0
KAI1 130746Z 08005KT M07/M14 A3026 RMK A01 T10661137  RH  057%=      5-min Rain = 0
KAI1 130747Z 08005KT M07/M14 A3026 RMK A01 T10661137  RH  057%=      5-min Rain = 0
KAI1 130748Z 08006KT M07/M14 A3026 RMK A01 T10661136  RH  057%=      5-min Rain = 0
KAI1 130749Z 08006KT M07/M14 A3026 RMK A01 T10661136  RH  057%=      5-min Rain = 0
KAI1 130750Z 08006KT M07/M14 A3026 RMK A01 T10651135  RH  058%=      5-min Rain = 0
KAI1 130751Z 08006KT M07/M14 A3026 RMK A01 T10651135  RH  058%=      5-min Rain = 0
KAI1 130752Z 08006KT M07/M13 A3026 RMK A01 T10651134  RH  058%=      5-min Rain = 0
KAI1 130753Z 08006KT M07/M14 A3026 RMK A01 T10651135  RH  058%=      5-min Rain = 0
KAI1 130754Z 08006KT M07/M14 A3026 RMK A01 T10651135  RH  058%=      5-min Rain = 0
KAI1 130755Z 08006KT M07/M13 A3026 RMK A01 T10651134  RH  058%=      5-min Rain = 0
KAI1 130756Z 08006KT M07/M13 A3026 RMK A01 T10651134  RH  058%=      5-min Rain = 0
KAI1 130757Z 09006KT M07/M13 A3026 RMK A01 T10651134  RH  058%=      5-min Rain = 0
KAI1 130758Z 09006KT M07/M13 A3026 RMK A01 T10651134  RH  058%=      5-min Rain = 0
KAI1 130759Z 09006KT M07/M14 A3026 RMK A01 T10661136  RH  058%=      5-min Rain = 0
KAI1 130800Z 09006KT M07/M14 A3026 RMK A01 T10671137  RH  057%=      5-min Rain = 0
KAI1 130801Z 09007KT M07/M14 A3026 RMK A01 T10671138  RH  057%=      5-min Rain = 0
KAI1 130802Z 09007KT M07/M14 A3026 RMK A01 T10681137  RH  058%=      5-min Rain = 0
KAI1 130803Z 08007KT M07/M14 A3026 RMK A01 T10681136  RH  059%=      5-min Rain = 0
KAI1 130804Z 08007KT M07/M13 A3026 RMK A01 T10691134  RH  060%=      5-min Rain = 0
KAI1 130805Z 08007KT M07/M13 A3026 RMK A01 T10681132  RH  060%=      5-min Rain = 0
KAI1 130806Z 08007KT M07/M13 A3026 RMK A01 T10681130  RH  061%=      5-min Rain = 0
KAI1 130807Z 08007KT M07/M13 A3026 RMK A01 T10661128  RH  062%=      5-min Rain = 0
KAI1 130808Z 08007KT M07/M13 A3026 RMK A01 T10661127  RH  062%=      5-min Rain = 0
KAI1 130809Z 09007KT M07/M13 A3026 RMK A01 T10661127  RH  062%=      5-min Rain = 0
KAI1 130810Z 09007KT M07/M13 A3026 RMK A01 T10661127  RH  062%=      5-min Rain = 0
KAI1 130811Z 09007KT M07/M13 A3026 RMK A01 T10671127  RH  062%=      5-min Rain = 0
KAI1 130812Z 09007KT M07/M13 A3026 RMK A01 T10681128  RH  062%=      5-min Rain = 0
KAI1 130813Z 09007KT M07/M13 A3026 RMK A01 T10681129  RH  062%=      5-min Rain = 0
KAI1 130814Z 09007KT M07/M13 A3026 RMK A01 T10691130  RH  062%=      5-min Rain = 0
KAI1 130815Z 09007KT M07/M13 A3025 RMK A01 T10691131  RH  062%=      5-min Rain = 0
KAI1 130816Z 09007KT M07/M13 A3025 RMK A01 T10701131  RH  062%=      5-min Rain = 0
KAI1 130817Z 09007KT M07/M13 A3025 RMK A01 T10691130  RH  062%=      5-min Rain = 0
KAI1 130818Z 09007KT M07/M13 A3025 RMK A01 T10691129  RH  062%=      5-min Rain = 0
KAI1 130819Z 09007KT M07/M13 A3025 RMK A01 T10691128  RH  063%=      5-min Rain = 0
KAI1 130820Z 09007KT M07/M13 A3025 RMK A01 T10691128  RH  063%=      5-min Rain = 0
KAI1 130821Z 09007KT M07/M13 A3025 RMK A01 T10681127  RH  063%=      5-min Rain = 0
KAI1 130822Z 09007KT M07/M13 A3025 RMK A01 T10681127  RH  063%=      5-min Rain = 0
KAI1 130823Z 09007KT M07/M13 A3025 RMK A01 T10681126  RH  063%=      5-min Rain = 0
KAI1 130824Z 09006KT M07/M13 A3025 RMK A01 T10681126  RH  063%=      5-min Rain = 0
KAI1 130825Z 09006KT M07/M13 A3025 RMK A01 T10681127  RH  063%=      5-min Rain = 0
KAI1 130826Z 09007KT M07/M13 A3025 RMK A01 T10681127  RH  063%=      5-min Rain = 0
KAI1 130827Z 09007KT M07/M13 A3025 RMK A01 T10681127  RH  063%=      5-min Rain = 0
KAI1 130828Z 09007KT M07/M13 A3025 RMK A01 T10681126  RH  063%=      5-min Rain = 0
KAI1 130829Z 09007KT M07/M13 A3025 RMK A01 T10681126  RH  063%=      5-min Rain = 0
KAI1 130830Z 09007KT M07/M13 A3025 RMK A01 T10681126  RH  064%=      5-min Rain = 0
KAI1 130831Z 09007KT M07/M13 A3025 RMK A01 T10681126  RH  064%=      5-min Rain = 0
KAI1 130832Z 09006KT M07/M13 A3025 RMK A01 T10691125  RH  064%=      5-min Rain = 0
KAI1 130833Z 09007KT M07/M13 A3025 RMK A01 T10691125  RH  064%=      5-min Rain = 0
KAI1 130834Z 10007KT M07/M13 A3025 RMK A01 T10691126  RH  064%=      5-min Rain = 0
KAI1 130835Z 10007KT M07/M13 A3025 RMK A01 T10691127  RH  064%=      5-min Rain = 0
KAI1 130836Z 10007KT M07/M13 A3025 RMK A01 T10691127  RH  063%=      5-min Rain = 0
KAI1 130837Z 10007KT M07/M13 A3025 RMK A01 T10691127  RH  063%=      5-min Rain = 0
KAI1 130838Z 10007KT M07/M13 A3025 RMK A01 T10691128  RH  063%=      5-min Rain = 0
KAI1 130839Z 10007KT M07/M13 A3025 RMK A01 T10701128  RH  063%=      5-min Rain = 0
KAI1 130840Z 10007KT M07/M13 A3025 RMK A01 T10691127  RH  063%=      5-min Rain = 0
KAI1 130841Z 10007KT M07/M13 A3025 RMK A01 T10691127  RH  063%=      5-min Rain = 0
KAI1 130842Z 10007KT M07/M13 A3025 RMK A01 T10701128  RH  063%=      5-min Rain = 0
KAI1 130843Z 10007KT M07/M13 A3025 RMK A01 T10691127  RH  063%=      5-min Rain = 0
KAI1 130844Z 10007KT M07/M13 A3025 RMK A01 T10691127  RH  063%=      5-min Rain = 0
KAI1 130845Z 09006KT M07/M13 A3025 RMK A01 T10691127  RH  063%=      5-min Rain = 0
KAI1 130846Z 09006KT M07/M13 A3025 RMK A01 T10691127  RH  063%=      5-min Rain = 0
KAI1 130847Z 08006KT M07/M13 A3025 RMK A01 T10691126  RH  064%=      5-min Rain = 0
KAI1 130848Z 08007KT M07/M13 A3025 RMK A01 T10701127  RH  064%=      5-min Rain = 0
KAI1 130849Z 08007KT M07/M13 A3025 RMK A01 T10721128  RH  064%=      5-min Rain = 0
KAI1 130850Z 08007KT M07/M13 A3025 RMK A01 T10731128  RH  065%=      5-min Rain = 0
KAI1 130851Z 08007KT M07/M13 A3025 RMK A01 T10731127  RH  065%=      5-min Rain = 0
KAI1 130852Z 08007KT M07/M13 A3025 RMK A01 T10731127  RH  066%=      5-min Rain = 0
KAI1 130853Z 08008KT M07/M13 A3025 RMK A01 T10731125  RH  066%=      5-min Rain = 0
KAI1 130854Z 08007KT M07/M12 A3025 RMK A01 T10721124  RH  066%=      5-min Rain = 0
KAI1 130855Z 08007KT M07/M12 A3025 RMK A01 T10711124  RH  066%=      5-min Rain = 0
KAI1 130856Z 08007KT M07/M12 A3025 RMK A01 T10701122  RH  067%=      5-min Rain = 0
KAI1 130857Z 08007KT M07/M12 A3025 RMK A01 T10691121  RH  067%=      5-min Rain = 0
KAI1 130858Z 09007KT M07/M12 A3025 RMK A01 T10691121  RH  066%=      5-min Rain = 0
KAI1 130859Z 09007KT M07/M12 A3025 RMK A01 T10691122  RH  066%=      5-min Rain = 0
KAI1 130900Z 09007KT M07/M12 A3024 RMK A01 T10691124  RH  065%=      5-min Rain = 0
KAI1 130901Z 10007KT M07/M13 A3024 RMK A01 T10691125  RH  064%=      5-min Rain = 0
KAI1 130902Z 10007KT M07/M13 A3024 RMK A01 T10691125  RH  064%=      5-min Rain = 0
KAI1 130903Z 10007KT M07/M13 A3024 RMK A01 T10701125  RH  065%=      5-min Rain = 0
KAI1 130904Z 10007KT M07/M12 A3024 RMK A01 T10691124  RH  065%=      5-min Rain = 0
KAI1 130905Z 11007KT M07/M12 A3024 RMK A01 T10691124  RH  065%=      5-min Rain = 0
KAI1 130906Z 11006KT M07/M12 A3024 RMK A01 T10691124  RH  065%=      5-min Rain = 0
KAI1 130907Z 11006KT M07/M12 A3024 RMK A01 T10691124  RH  065%=      5-min Rain = 0
KAI1 130908Z 11006KT M07/M12 A3024 RMK A01 T10691124  RH  065%=      5-min Rain = 0
KAI1 130909Z 11006KT M07/M12 A3024 RMK A01 T10691123  RH  065%=      5-min Rain = 0
KAI1 130910Z 10006KT M07/M12 A3024 RMK A01 T10691123  RH  066%=      5-min Rain = 0
KAI1 130911Z 10006KT M07/M12 A3024 RMK A01 T10681122  RH  066%=      5-min Rain = 0
KAI1 130912Z 10006KT M07/M12 A3024 RMK A01 T10681121  RH  066%=      5-min Rain = 0
KAI1 130913Z 10005KT M07/M12 A3024 RMK A01 T10681121  RH  066%=      5-min Rain = 0
KAI1 130914Z 09005KT M07/M12 A3024 RMK A01 T10681123  RH  065%=      5-min Rain = 0
KAI1 130915Z 09005KT M07/M12 A3024 RMK A01 T10681124  RH  064%=      5-min Rain = 0
KAI1 130916Z 09005KT M07/M13 A3024 RMK A01 T10691125  RH  065%=      5-min Rain = 0
KAI1 130917Z 10005KT M07/M12 A3024 RMK A01 T10701124  RH  065%=      5-min Rain = 0
KAI1 130918Z 10005KT M07/M12 A3024 RMK A01 T10701123  RH  066%=      5-min Rain = 0
KAI1 130919Z 10005KT M07/M12 A3024 RMK A01 T10701123  RH  066%=      5-min Rain = 0
KAI1 130920Z 10005KT M07/M12 A3024 RMK A01 T10701124  RH  066%=      5-min Rain = 0
KAI1 130921Z 10006KT M07/M12 A3024 RMK A01 T10711124  RH  065%=      5-min Rain = 0
KAI1 130922Z 10006KT M07/M13 A3024 RMK A01 T10711125  RH  065%=      5-min Rain = 0
KAI1 130923Z 10006KT M07/M13 A3024 RMK A01 T10711126  RH  065%=      5-min Rain = 0
KAI1 130924Z 11006KT M07/M13 A3024 RMK A01 T10721127  RH  065%=      5-min Rain = 0
KAI1 130925Z 11006KT M07/M13 A3024 RMK A01 T10731128  RH  065%=      5-min Rain = 0
KAI1 130926Z 11007KT M07/M13 A3024 RMK A01 T10731128  RH  065%=      5-min Rain = 0
KAI1 130927Z 11007KT M07/M13 A3024 RMK A01 T10731127  RH  065%=      5-min Rain = 0
KAI1 130928Z 12007KT M07/M13 A3024 RMK A01 T10731127  RH  065%=      5-min Rain = 0
KAI1 130929Z 12007KT M07/M13 A3024 RMK A01 T10731127  RH  066%=      5-min Rain = 0
KAI1 130930Z 12007KT M07/M13 A3024 RMK A01 T10731126  RH  066%=      5-min Rain = 0
KAI1 130931Z 12007KT M07/M13 A3024 RMK A01 T10731125  RH  066%=      5-min Rain = 0
KAI1 130932Z 12007KT M07/M12 A3024 RMK A01 T10721124  RH  067%=      5-min Rain = 0
KAI1 130933Z 12007KT M07/M12 A3024 RMK A01 T10711123  RH  067%=      5-min Rain = 0
KAI1 130934Z 11007KT M07/M12 A3024 RMK A01 T10711122  RH  067%=      5-min Rain = 0
KAI1 130935Z 11007KT M07/M12 A3024 RMK A01 T10701122  RH  067%=      5-min Rain = 0
KAI1 130936Z 11007KT M07/M12 A3024 RMK A01 T10701122  RH  067%=      5-min Rain = 0
KAI1 130937Z 11006KT M07/M12 A3025 RMK A01 T10701122  RH  066%=      5-min Rain = 0
KAI1 130938Z 11006KT M07/M12 A3025 RMK A01 T10691122  RH  066%=      5-min Rain = 0
KAI1 130939Z 10006KT M07/M12 A3025 RMK A01 T10701123  RH  066%=      5-min Rain = 0
KAI1 130940Z 10006KT M07/M12 A3025 RMK A01 T10691122  RH  066%=      5-min Rain = 0
KAI1 130941Z 10005KT M07/M12 A3025 RMK A01 T10691121  RH  067%=      5-min Rain = 0
KAI1 130942Z 09004KT M07/M12 A3025 RMK A01 T10701123  RH  066%=      5-min Rain = 0
KAI1 130943Z 08004KT M07/M13 A3025 RMK A01 T10711125  RH  065%=      5-min Rain = 0
KAI1 130944Z 08004KT M07/M13 A3025 RMK A01 T10731128  RH  065%=      5-min Rain = 0
KAI1 130945Z 07004KT M08/M13 A3025 RMK A01 T10751130  RH  065%=      5-min Rain = 0
KAI1 130946Z 07004KT M08/M13 A3025 RMK A01 T10761131  RH  065%=      5-min Rain = 0
KAI1 130947Z 06003KT M08/M13 A3026 RMK A01 T10771131  RH  065%=      5-min Rain = 0
KAI1 130948Z 04003KT M08/M13 A3026 RMK A01 T10771132  RH  065%=      5-min Rain = 0
KAI1 130949Z 04003KT M08/M13 A3026 RMK A01 T10781133  RH  065%=      5-min Rain = 0
KAI1 130950Z 03003KT M08/M13 A3026 RMK A01 T10791134  RH  065%=      5-min Rain = 0
KAI1 130951Z 03003KT M08/M14 A3026 RMK A01 T10781135  RH  064%=      5-min Rain = 0
KAI1 130952Z 02004KT M08/M14 A3026 RMK A01 T10791137  RH  063%=      5-min Rain = 0
KAI1 130953Z 00004KT M08/M14 A3026 RMK A01 T10791139  RH  062%=      5-min Rain = 0
KAI1 130954Z 01004KT M08/M14 A3026 RMK A01 T10791141  RH  061%=      5-min Rain = 0
KAI1 130955Z 02004KT M08/M14 A3026 RMK A01 T10801142  RH  061%=      5-min Rain = 0
KAI1 130956Z 01004KT M08/M14 A3026 RMK A01 T10791141  RH  061%=      5-min Rain = 0
KAI1 130957Z 01004KT M08/M14 A3026 RMK A01 T10791139  RH  062%=      5-min Rain = 0
KAI1 130958Z 01004KT M08/M14 A3026 RMK A01 T10791138  RH  063%=      5-min Rain = 0
KAI1 130959Z 01005KT M08/M14 A3026 RMK A01 T10781136  RH  063%=      5-min Rain = 0
KAI1 131000Z 02005KT M08/M13 A3027 RMK A01 T10781134  RH  064%=      5-min Rain = 0
KAI1 131001Z 01005KT M08/M13 A3027 RMK A01 T10781133  RH  065%=      5-min Rain = 0
KAI1 131002Z 01005KT M08/M13 A3027 RMK A01 T10781131  RH  066%=      5-min Rain = 0
KAI1 131003Z 02005KT M08/M13 A3027 RMK A01 T10781131  RH  066%=      5-min Rain = 0
KAI1 131004Z 02005KT M08/M13 A3027 RMK A01 T10781131  RH  066%=      5-min Rain = 0
KAI1 131005Z 02005KT M08/M13 A3027 RMK A01 T10781131  RH  066%=      5-min Rain = 0
KAI1 131006Z 02005KT M08/M13 A3027 RMK A01 T10781131  RH  066%=      5-min Rain = 0
KAI1 131007Z 03005KT M08/M13 A3027 RMK A01 T10781131  RH  066%=      5-min Rain = 0
KAI1 131008Z 03005KT M08/M13 A3027 RMK A01 T10781131  RH  066%=      5-min Rain = 0
KAI1 131009Z 04004KT M08/M13 A3027 RMK A01 T10781131  RH  066%=      5-min Rain = 0
KAI1 131010Z 03004KT M08/M13 A3027 RMK A01 T10791132  RH  065%=      5-min Rain = 0
KAI1 131011Z 03004KT M08/M13 A3027 RMK A01 T10791132  RH  065%=      5-min Rain = 0
KAI1 131012Z 04004KT M08/M13 A3027 RMK A01 T10791133  RH  065%=      5-min Rain = 0
KAI1 131013Z 04004KT M08/M13 A3027 RMK A01 T10791134  RH  065%=      5-min Rain = 0
KAI1 131014Z 03004KT M08/M13 A3027 RMK A01 T10801134  RH  065%=      5-min Rain = 0
KAI1 131015Z 03003KT M08/M13 A3027 RMK A01 T10801134  RH  065%=      5-min Rain = 0
KAI1 131016Z 02003KT M08/M13 A3027 RMK A01 T10801133  RH  065%=      5-min Rain = 0
KAI1 131017Z 03003KT M08/M13 A3027 RMK A01 T10791133  RH  065%=      5-min Rain = 0
KAI1 131018Z 03003KT M08/M13 A3027 RMK A01 T10791133  RH  065%=      5-min Rain = 0
KAI1 131019Z 01004KT M08/M13 A3027 RMK A01 T10791133  RH  065%=      5-min Rain = 0
KAI1 131020Z 00004KT M08/M13 A3027 RMK A01 T10791134  RH  065%=      5-min Rain = 0
KAI1 131021Z 00004KT M08/M14 A3027 RMK A01 T10791135  RH  064%=      5-min Rain = 0
KAI1 131022Z 01005KT M08/M14 A3027 RMK A01 T10791136  RH  064%=      5-min Rain = 0
KAI1 131023Z 02005KT M08/M14 A3027 RMK A01 T10791135  RH  064%=      5-min Rain = 0
KAI1 131024Z 02005KT M08/M13 A3027 RMK A01 T10791133  RH  065%=      5-min Rain = 0
KAI1 131025Z 03005KT M08/M13 A3027 RMK A01 T10781130  RH  066%=      5-min Rain = 0
KAI1 131026Z 03005KT M08/M13 A3027 RMK A01 T10781129  RH  067%=      5-min Rain = 0
KAI1 131027Z 02005KT M08/M13 A3027 RMK A01 T10781128  RH  067%=      5-min Rain = 0
KAI1 131028Z 02005KT M08/M13 A3027 RMK A01 T10771128  RH  067%=      5-min Rain = 0
KAI1 131029Z 02005KT M08/M13 A3027 RMK A01 T10771128  RH  067%=      5-min Rain = 0
KAI1 131030Z 03005KT M08/M13 A3027 RMK A01 T10771129  RH  066%=      5-min Rain = 0
KAI1 131031Z 03005KT M08/M13 A3027 RMK A01 T10771129  RH  066%=      5-min Rain = 0
KAI1 131032Z 04004KT M08/M13 A3027 RMK A01 T10771129  RH  067%=      5-min Rain = 0
KAI1 131033Z 04004KT M08/M13 A3027 RMK A01 T10771128  RH  067%=      5-min Rain = 0
KAI1 131034Z 04004KT M08/M13 A3027 RMK A01 T10771127  RH  067%=      5-min Rain = 0
KAI1 131035Z 04004KT M08/M13 A3027 RMK A01 T10761126  RH  067%=      5-min Rain = 0
KAI1 131036Z 05004KT M08/M13 A3027 RMK A01 T10761127  RH  067%=      5-min Rain = 0
KAI1 131037Z 05004KT M08/M13 A3027 RMK A01 T10761127  RH  067%=      5-min Rain = 0
KAI1 131038Z 05004KT M08/M12 A3026 RMK A01 T10751124  RH  068%=      5-min Rain = 0
KAI1 131039Z 05004KT M08/M12 A3026 RMK A01 T10751124  RH  068%=      5-min Rain = 0
KAI1 131040Z 06004KT M08/M13 A3026 RMK A01 T10751126  RH  067%=      5-min Rain = 0
KAI1 131041Z 06004KT M08/M13 A3026 RMK A01 T10751128  RH  066%=      5-min Rain = 0
KAI1 131042Z 05004KT M08/M13 A3026 RMK A01 T10761128  RH  066%=      5-min Rain = 0
KAI1 131043Z 05004KT M08/M13 A3026 RMK A01 T10771131  RH  065%=      5-min Rain = 0
KAI1 131044Z 05004KT M08/M13 A3026 RMK A01 T10771131  RH  065%=      5-min Rain = 0
KAI1 131045Z 05004KT M08/M13 A3026 RMK A01 T10781131  RH  065%=      5-min Rain = 0
KAI1 131046Z 05004KT M08/M13 A3026 RMK A01 T10781132  RH  065%=      5-min Rain = 0
KAI1 131047Z 06004KT M08/M13 A3026 RMK A01 T10791133  RH  065%=      5-min Rain = 0
KAI1 131048Z 06004KT M08/M13 A3026 RMK A01 T10811134  RH  065%=      5-min Rain = 0
KAI1 131049Z 07005KT M08/M14 A3026 RMK A01 T10811135  RH  065%=      5-min Rain = 0
KAI1 131050Z 07005KT M08/M14 A3026 RMK A01 T10821136  RH  065%=      5-min Rain = 0
KAI1 131051Z 07005KT M08/M14 A3025 RMK A01 T10821136  RH  065%=      5-min Rain = 0
KAI1 131052Z 07005KT M08/M14 A3025 RMK A01 T10831138  RH  065%=      5-min Rain = 0
KAI1 131053Z 07005KT M08/M14 A3025 RMK A01 T10841138  RH  065%=      5-min Rain = 0
KAI1 131054Z 07005KT M08/M14 A3025 RMK A01 T10841137  RH  066%=      5-min Rain = 0
KAI1 131055Z 07005KT M08/M14 A3025 RMK A01 T10841137  RH  066%=      5-min Rain = 0
KAI1 131056Z 07005KT M08/M14 A3025 RMK A01 T10841136  RH  066%=      5-min Rain = 0
KAI1 131057Z 08005KT M08/M14 A3025 RMK A01 T10841135  RH  066%=      5-min Rain = 0
KAI1 131058Z 07005KT M08/M14 A3025 RMK A01 T10841137  RH  066%=      5-min Rain = 0
KAI1 131059Z 08005KT M08/M14 A3025 RMK A01 T10841137  RH  066%=      5-min Rain = 0
KAI1 131100Z 08006KT M09/M14 A3025 RMK A01 T10851138  RH  066%=      5-min Rain = 0
KAI1 131101Z 08006KT M09/M14 A3025 RMK A01 T10861139  RH  065%=      5-min Rain = 0
KAI1 131102Z 07005KT M09/M14 A3025 RMK A01 T10871140  RH  065%=      5-min Rain = 0
KAI1 131103Z 07005KT M09/M14 A3025 RMK A01 T10871139  RH  066%=      5-min Rain = 0
KAI1 131104Z 07005KT M09/M14 A3025 RMK A01 T10871139  RH  066%=      5-min Rain = 0
KAI1 131105Z 07005KT M09/M14 A3025 RMK A01 T10871140  RH  066%=      5-min Rain = 0
KAI1 131106Z 06005KT M09/M14 A3025 RMK A01 T10861139  RH  066%=      5-min Rain = 0
KAI1 131107Z 06004KT M09/M14 A3025 RMK A01 T10861140  RH  065%=      5-min Rain = 0
KAI1 131108Z 07005KT M09/M14 A3025 RMK A01 T10861141  RH  065%=      5-min Rain = 0
KAI1 131109Z 07005KT M09/M14 A3025 RMK A01 T10871143  RH  064%=      5-min Rain = 0
KAI1 131110Z 07005KT M09/M15 A3025 RMK A01 T10871145  RH  063%=      5-min Rain = 0
KAI1 131111Z 07005KT M09/M15 A3025 RMK A01 T10871146  RH  063%=      5-min Rain = 0
KAI1 131112Z 07006KT M09/M15 A3025 RMK A01 T10881147  RH  062%=      5-min Rain = 0
KAI1 131113Z 07006KT M09/M15 A3025 RMK A01 T10881147  RH  062%=      5-min Rain = 0
KAI1 131114Z 07006KT M09/M15 A3025 RMK A01 T10881147  RH  062%=      5-min Rain = 0
KAI1 131115Z 07006KT M09/M15 A3025 RMK A01 T10881146  RH  063%=      5-min Rain = 0
KAI1 131116Z 07006KT M09/M15 A3025 RMK A01 T10881145  RH  063%=      5-min Rain = 0
KAI1 131117Z 07006KT M09/M14 A3025 RMK A01 T10881144  RH  064%=      5-min Rain = 0
KAI1 131118Z 07006KT M09/M14 A3025 RMK A01 T10871143  RH  064%=      5-min Rain = 0
KAI1 131119Z 07006KT M09/M14 A3025 RMK A01 T10861140  RH  065%=      5-min Rain = 0
KAI1 131120Z 07005KT M09/M14 A3025 RMK A01 T10861139  RH  065%=      5-min Rain = 0
KAI1 131121Z 07006KT M09/M14 A3025 RMK A01 T10861140  RH  065%=      5-min Rain = 0
KAI1 131122Z 07006KT M09/M14 A3025 RMK A01 T10851139  RH  065%=      5-min Rain = 0
KAI1 131123Z 07006KT M08/M14 A3025 RMK A01 T10841138  RH  065%=      5-min Rain = 0
KAI1 131124Z 06006KT M08/M14 A3025 RMK A01 T10841139  RH  065%=      5-min Rain = 0
KAI1 131125Z 06006KT M08/M14 A3025 RMK A01 T10841139  RH  064%=      5-min Rain = 0
KAI1 131126Z 06005KT M08/M14 A3025 RMK A01 T10841140  RH  064%=      5-min Rain = 0
KAI1 131127Z 06005KT M09/M14 A3025 RMK A01 T10851140  RH  064%=      5-min Rain = 0
KAI1 131128Z 06006KT M09/M14 A3025 RMK A01 T10851139  RH  065%=      5-min Rain = 0
KAI1 131129Z 05005KT M09/M14 A3025 RMK A01 T10851138  RH  065%=      5-min Rain = 0
KAI1 131130Z 05005KT M08/M14 A3025 RMK A01 T10841138  RH  065%=      5-min Rain = 0
KAI1 131131Z 06005KT M09/M14 A3025 RMK A01 T10851138  RH  065%=      5-min Rain = 0
KAI1 131132Z 06005KT M08/M14 A3025 RMK A01 T10841138  RH  065%=      5-min Rain = 0
KAI1 131133Z 06005KT M08/M14 A3025 RMK A01 T10841137  RH  065%=      5-min Rain = 0
KAI1 131134Z 07005KT M08/M14 A3025 RMK A01 T10841137  RH  066%=      5-min Rain = 0
KAI1 131135Z 07005KT M08/M14 A3025 RMK A01 T10841136  RH  066%=      5-min Rain = 0
KAI1 131136Z 07005KT M08/M13 A3025 RMK A01 T10831134  RH  066%=      5-min Rain = 0
KAI1 131137Z 08005KT M08/M13 A3025 RMK A01 T10831133  RH  067%=      5-min Rain = 0
KAI1 131138Z 08005KT M08/M13 A3025 RMK A01 T10821130  RH  068%=      5-min Rain = 0
KAI1 131139Z 09005KT M08/M13 A3025 RMK A01 T10811130  RH  068%=      5-min Rain = 0
KAI1 131140Z 09005KT M08/M13 A3025 RMK A01 T10811129  RH  068%=      5-min Rain = 0
KAI1 131141Z 09004KT M08/M13 A3026 RMK A01 T10801128  RH  068%=      5-min Rain = 0
KAI1 131142Z 09004KT M08/M13 A3026 RMK A01 T10801129  RH  068%=      5-min Rain = 0
KAI1 131143Z 09004KT M08/M13 A3026 RMK A01 T10801130  RH  067%=      5-min Rain = 0
KAI1 131144Z 09004KT M08/M13 A3026 RMK A01 T10801132  RH  067%=      5-min Rain = 0
KAI1 131145Z 09004KT M08/M13 A3026 RMK A01 T10811132  RH  067%=      5-min Rain = 0
KAI1 131146Z 09004KT M08/M13 A3026 RMK A01 T10811130  RH  068%=      5-min Rain = 0
KAI1 131147Z 09004KT M08/M13 A3026 RMK A01 T10811130  RH  068%=      5-min Rain = 0
KAI1 131148Z 09004KT M08/M13 A3026 RMK A01 T10811131  RH  067%=      5-min Rain = 0
KAI1 131149Z 09004KT M08/M13 A3026 RMK A01 T10811133  RH  066%=      5-min Rain = 0
KAI1 131150Z 09004KT M08/M13 A3026 RMK A01 T10811133  RH  066%=      5-min Rain = 0
KAI1 131151Z 09003KT M08/M13 A3026 RMK A01 T10811133  RH  066%=      5-min Rain = 0
KAI1 131152Z 08004KT M08/M13 A3026 RMK A01 T10811134  RH  066%=      5-min Rain = 0
KAI1 131153Z 08003KT M08/M13 A3026 RMK A01 T10811133  RH  066%=      5-min Rain = 0
KAI1 131154Z 08003KT M08/M13 A3026 RMK A01 T10811132  RH  067%=      5-min Rain = 0
KAI1 131155Z 08003KT M08/M13 A3026 RMK A01 T10821134  RH  066%=      5-min Rain = 0
KAI1 131156Z 08003KT M08/M14 A3027 RMK A01 T10821135  RH  066%=      5-min Rain = 0
KAI1 131157Z 07003KT M08/M14 A3027 RMK A01 T10821135  RH  066%=      5-min Rain = 0
KAI1 131158Z 07002KT M08/M14 A3027 RMK A01 T10831138  RH  064%=      5-min Rain = 0
KAI1 131159Z 06002KT M08/M14 A3027 RMK A01 T10841140  RH  064%=      5-min Rain = 0
KAI1 131200Z 06002KT M08/M14 A3027 RMK A01 T10841142  RH  063%=      5-min Rain = 0
KAI1 131201Z 05002KT M08/M14 A3027 RMK A01 T10841141  RH  063%=      5-min Rain = 0
KAI1 131202Z 06002KT M08/M14 A3027 RMK A01 T10841140  RH  064%=      5-min Rain = 0
KAI1 131203Z 06003KT M08/M14 A3027 RMK A01 T10841139  RH  064%=      5-min Rain = 0
KAI1 131204Z 06003KT M08/M14 A3027 RMK A01 T10841139  RH  064%=      5-min Rain = 0
KAI1 131205Z 06003KT M08/M14 A3027 RMK A01 T10831140  RH  064%=      5-min Rain = 0
KAI1 131206Z 05003KT M08/M14 A3027 RMK A01 T10841139  RH  064%=      5-min Rain = 0
KAI1 131207Z 05003KT M08/M14 A3027 RMK A01 T10831137  RH  065%=      5-min Rain = 0
KAI1 131208Z 04003KT M08/M14 A3027 RMK A01 T10831136  RH  066%=      5-min Rain = 0
KAI1 131209Z 03003KT M08/M14 A3027 RMK A01 T10831135  RH  066%=      5-min Rain = 0
KAI1 131210Z 03004KT M08/M14 A3027 RMK A01 T10831135  RH  066%=      5-min Rain = 0
KAI1 131211Z 03003KT M08/M14 A3027 RMK A01 T10831135  RH  066%=      5-min Rain = 0
KAI1 131212Z 02004KT M08/M14 A3027 RMK A01 T10831135  RH  066%=      5-min Rain = 0
KAI1 131213Z 02004KT M08/M14 A3028 RMK A01 T10831135  RH  066%=      5-min Rain = 0
KAI1 131214Z 03004KT M08/M14 A3028 RMK A01 T10841136  RH  066%=      5-min Rain = 0
KAI1 131215Z 04004KT M08/M14 A3028 RMK A01 T10841135  RH  067%=      5-min Rain = 0
KAI1 131216Z 04004KT M08/M13 A3028 RMK A01 T10841134  RH  067%=      5-min Rain = 0
KAI1 131217Z 05004KT M08/M13 A3028 RMK A01 T10841133  RH  067%=      5-min Rain = 0
KAI1 131218Z 06004KT M08/M13 A3028 RMK A01 T10831132  RH  068%=      5-min Rain = 0
KAI1 131219Z 06004KT M08/M13 A3028 RMK A01 T10831132  RH  068%=      5-min Rain = 0
KAI1 131220Z 06004KT M08/M13 A3027 RMK A01 T10821131  RH  068%=      5-min Rain = 0
KAI1 131221Z 06004KT M08/M13 A3028 RMK A01 T10821132  RH  067%=      5-min Rain = 0
KAI1 131222Z 06004KT M08/M13 A3028 RMK A01 T10821133  RH  067%=      5-min Rain = 0
KAI1 131223Z 06004KT M08/M13 A3028 RMK A01 T10831134  RH  067%=      5-min Rain = 0
KAI1 131224Z 06004KT M08/M14 A3028 RMK A01 T10831135  RH  066%=      5-min Rain = 0
KAI1 131225Z 06004KT M08/M14 A3028 RMK A01 T10841136  RH  066%=      5-min Rain = 0
KAI1 131226Z 05005KT M09/M14 A3028 RMK A01 T10851138  RH  065%=      5-min Rain = 0
KAI1 131227Z 05005KT M09/M14 A3028 RMK A01 T10861140  RH  065%=      5-min Rain = 0
KAI1 131228Z 04005KT M09/M14 A3028 RMK A01 T10861141  RH  064%=      5-min Rain = 0
KAI1 131229Z 04005KT M09/M14 A3027 RMK A01 T10871142  RH  064%=      5-min Rain = 0
KAI1 131230Z 04005KT M09/M14 A3027 RMK A01 T10871143  RH  064%=      5-min Rain = 0
KAI1 131231Z 05005KT M09/M14 A3027 RMK A01 T10871143  RH  064%=      5-min Rain = 0
KAI1 131232Z 05005KT M09/M14 A3027 RMK A01 T10881143  RH  064%=      5-min Rain = 0
KAI1 131233Z 04005KT M09/M14 A3027 RMK A01 T10881143  RH  064%=      5-min Rain = 0
KAI1 131234Z 05005KT M09/M14 A3027 RMK A01 T10881143  RH  065%=      5-min Rain = 0
KAI1 131235Z 05005KT M09/M14 A3028 RMK A01 T10881142  RH  065%=      5-min Rain = 0
KAI1 131236Z 05005KT M09/M14 A3028 RMK A01 T10881142  RH  065%=      5-min Rain = 0
KAI1 131237Z 05005KT M09/M14 A3028 RMK A01 T10881142  RH  065%=      5-min Rain = 0
KAI1 131238Z 05005KT M09/M14 A3028 RMK A01 T10881141  RH  065%=      5-min Rain = 0
KAI1 131239Z 06005KT M09/M14 A3028 RMK A01 T10881141  RH  065%=      5-min Rain = 0
KAI1 131240Z 06005KT M09/M14 A3028 RMK A01 T10881141  RH  065%=      5-min Rain = 0
KAI1 131241Z 06005KT M09/M14 A3027 RMK A01 T10881141  RH  066%=      5-min Rain = 0
KAI1 131242Z 06006KT M09/M14 A3027 RMK A01 T10881140  RH  066%=      5-min Rain = 0
KAI1 131243Z 06006KT M09/M14 A3027 RMK A01 T10881140  RH  066%=      5-min Rain = 0
KAI1 131244Z 06006KT M09/M14 A3027 RMK A01 T10881140  RH  066%=      5-min Rain = 0
KAI1 131245Z 06006KT M09/M14 A3027 RMK A01 T10881141  RH  066%=      5-min Rain = 0
KAI1 131246Z 06005KT M09/M14 A3027 RMK A01 T10881141  RH  065%=      5-min Rain = 0
KAI1 131247Z 06005KT M09/M14 A3027 RMK A01 T10881141  RH  065%=      5-min Rain = 0
KAI1 131248Z 06005KT M09/M14 A3027 RMK A01 T10871141  RH  065%=      5-min Rain = 0
KAI1 131249Z 06005KT M09/M14 A3027 RMK A01 T10871141  RH  065%=      5-min Rain = 0
KAI1 131250Z 07005KT M09/M14 A3027 RMK A01 T10871141  RH  065%=      5-min Rain = 0
KAI1 131251Z 07005KT M09/M14 A3027 RMK A01 T10871141  RH  065%=      5-min Rain = 0
KAI1 131252Z 08006KT M09/M14 A3027 RMK A01 T10871141  RH  065%=      5-min Rain = 0
KAI1 131253Z 08006KT M09/M14 A3027 RMK A01 T10881142  RH  065%=      5-min Rain = 0
KAI1 131254Z 08006KT M09/M14 A3027 RMK A01 T10881142  RH  065%=      5-min Rain = 0
KAI1 131255Z 08006KT M09/M14 A3027 RMK A01 T10881143  RH  064%=      5-min Rain = 0
KAI1 131256Z 08006KT M09/M14 A3027 RMK A01 T10881144  RH  064%=      5-min Rain = 0
KAI1 131257Z 08006KT M09/M15 A3027 RMK A01 T10881145  RH  064%=      5-min Rain = 0
KAI1 131258Z 08007KT M09/M15 A3027 RMK A01 T10881145  RH  063%=      5-min Rain = 0
KAI1 131259Z 08006KT M09/M14 A3027 RMK A01 T10881143  RH  064%=      5-min Rain = 0
KAI1 131300Z 07006KT M09/M14 A3028 RMK A01 T10871142  RH  065%=      5-min Rain = 0
KAI1 131301Z 07006KT M09/M14 A3028 RMK A01 T10871141  RH  065%=      5-min Rain = 0
KAI1 131302Z 07006KT M09/M14 A3028 RMK A01 T10871140  RH  065%=      5-min Rain = 0
KAI1 131303Z 07005KT M09/M14 A3028 RMK A01 T10871139  RH  066%=      5-min Rain = 0
KAI1 131304Z 06005KT M09/M14 A3028 RMK A01 T10871138  RH  066%=      5-min Rain = 0
KAI1 131305Z 06005KT M09/M14 A3028 RMK A01 T10871139  RH  066%=      5-min Rain = 0
KAI1 131306Z 06005KT M09/M14 A3028 RMK A01 T10861138  RH  066%=      5-min Rain = 0
KAI1 131307Z 06004KT M09/M14 A3028 RMK A01 T10851138  RH  066%=      5-min Rain = 0
KAI1 131308Z 06004KT M09/M14 A3028 RMK A01 T10851138  RH  066%=      5-min Rain = 0
KAI1 131309Z 06003KT M09/M14 A3028 RMK A01 T10851139  RH  065%=      5-min Rain = 0
KAI1 131310Z 06003KT M09/M14 A3029 RMK A01 T10851139  RH  065%=      5-min Rain = 0
KAI1 131311Z 06003KT M09/M14 A3028 RMK A01 T10851139  RH  065%=      5-min Rain = 0
KAI1 131312Z 06003KT M09/M14 A3029 RMK A01 T10851141  RH  064%=      5-min Rain = 0
KAI1 131313Z 06003KT M09/M14 A3029 RMK A01 T10851143  RH  063%=      5-min Rain = 0
KAI1 131314Z 06003KT M09/M14 A3029 RMK A01 T10851143  RH  063%=      5-min Rain = 0
KAI1 131315Z 07003KT M09/M14 A3029 RMK A01 T10851142  RH  064%=      5-min Rain = 0
KAI1 131316Z 07003KT M09/M14 A3029 RMK A01 T10851141  RH  064%=      5-min Rain = 0
KAI1 131317Z 06003KT M09/M14 A3029 RMK A01 T10851139  RH  065%=      5-min Rain = 0
KAI1 131318Z 06003KT M08/M14 A3029 RMK A01 T10841137  RH  066%=      5-min Rain = 0
KAI1 131319Z 06003KT M08/M14 A3029 RMK A01 T10831135  RH  066%=      5-min Rain = 0
KAI1 131320Z 06003KT M08/M13 A3029 RMK A01 T10831134  RH  066%=      5-min Rain = 0
KAI1 131321Z 07003KT M08/M14 A3029 RMK A01 T10821135  RH  066%=      5-min Rain = 0
KAI1 131322Z 07003KT M08/M14 A3029 RMK A01 T10821136  RH  065%=      5-min Rain = 0
KAI1 131323Z 07004KT M08/M14 A3028 RMK A01 T10821136  RH  065%=      5-min Rain = 0
KAI1 131324Z 07004KT M08/M14 A3028 RMK A01 T10821137  RH  065%=      5-min Rain = 0
KAI1 131325Z 07004KT M08/M14 A3028 RMK A01 T10821136  RH  065%=      5-min Rain = 0
KAI1 131326Z 07004KT M08/M14 A3028 RMK A01 T10821136  RH  065%=      5-min Rain = 0
KAI1 131327Z 07004KT M08/M14 A3028 RMK A01 T10821136  RH  065%=      5-min Rain = 0
KAI1 131328Z 06004KT M08/M14 A3028 RMK A01 T10821136  RH  065%=      5-min Rain = 0
KAI1 131329Z 06003KT M08/M14 A3028 RMK A01 T10821135  RH  066%=      5-min Rain = 0
KAI1 131330Z 05003KT M08/M13 A3028 RMK A01 T10821134  RH  066%=      5-min Rain = 0
KAI1 131331Z 05004KT M08/M13 A3029 RMK A01 T10821133  RH  066%=      5-min Rain = 0
KAI1 131332Z 04004KT M08/M13 A3029 RMK A01 T10811132  RH  067%=      5-min Rain = 0
KAI1 131333Z 04004KT M08/M13 A3029 RMK A01 T10801130  RH  067%=      5-min Rain = 0
KAI1 131334Z 04004KT M08/M13 A3029 RMK A01 T10801129  RH  068%=      5-min Rain = 0
KAI1 131335Z 03004KT M08/M13 A3029 RMK A01 T10791127  RH  068%=      5-min Rain = 0
KAI1 131336Z 03004KT M08/M13 A3029 RMK A01 T10781125  RH  069%=      5-min Rain = 0
KAI1 131337Z 03004KT M08/M13 A3029 RMK A01 T10781125  RH  069%=      5-min Rain = 0
KAI1 131338Z 03005KT M08/M12 A3029 RMK A01 T10771124  RH  069%=      5-min Rain = 0
KAI1 131339Z 03005KT M08/M12 A3029 RMK A01 T10761124  RH  069%=      5-min Rain = 0
KAI1 131340Z 03005KT M08/M12 A3029 RMK A01 T10761124  RH  069%=      5-min Rain = 0
KAI1 131341Z 02004KT M08/M12 A3029 RMK A01 T10761124  RH  068%=      5-min Rain = 0
KAI1 131342Z 02005KT M08/M12 A3029 RMK A01 T10761124  RH  068%=      5-min Rain = 0
KAI1 131343Z 02005KT M08/M12 A3029 RMK A01 T10751124  RH  068%=      5-min Rain = 0
KAI1 131344Z 02004KT M08/M12 A303 RMK A01 T10751123  RH  068%=      5-min Rain = 0
KAI1 131345Z 02004KT M07/M12 A303 RMK A01 T10741123  RH  068%=      5-min Rain = 0
KAI1 131346Z 02004KT M07/M12 A303 RMK A01 T10741123  RH  068%=      5-min Rain = 0
KAI1 131347Z 02004KT M07/M12 A303 RMK A01 T10731122  RH  068%=      5-min Rain = 0
KAI1 131348Z 03004KT M07/M12 A303 RMK A01 T10731121  RH  068%=      5-min Rain = 0
KAI1 131349Z 03004KT M07/M12 A303 RMK A01 T10731121  RH  068%=      5-min Rain = 0
KAI1 131350Z 04004KT M07/M12 A303 RMK A01 T10721120  RH  068%=      5-min Rain = 0
KAI1 131351Z 04004KT M07/M12 A303 RMK A01 T10721120  RH  068%=      5-min Rain = 0
KAI1 131352Z 04004KT M07/M12 A3029 RMK A01 T10711119  RH  069%=      5-min Rain = 0
KAI1 131353Z 04005KT M07/M12 A3029 RMK A01 T10701118  RH  069%=      5-min Rain = 0
KAI1 131354Z 03005KT M07/M12 A3029 RMK A01 T10691117  RH  069%=      5-min Rain = 0
KAI1 131355Z 03005KT M07/M12 A303 RMK A01 T10681116  RH  069%=      5-min Rain = 0
KAI1 131356Z 04005KT M07/M12 A303 RMK A01 T10671115  RH  069%=      5-min Rain = 0
KAI1 131357Z 04005KT M07/M11 A303 RMK A01 T10661114  RH  069%=      5-min Rain = 0
KAI1 131358Z 04005KT M07/M11 A303 RMK A01 T10651113  RH  069%=      5-min Rain = 0
KAI1 131359Z 03005KT M06/M11 A303 RMK A01 T10641111  RH  070%=      5-min Rain = 0
KAI1 131400Z 04005KT M06/M11 A3029 RMK A01 T10641109  RH  070%=      5-min Rain = 0
KAI1 131401Z 04004KT M06/M11 A303 RMK A01 T10631109  RH  070%=      5-min Rain = 0
KAI1 131402Z 04004KT M06/M11 A303 RMK A01 T10631109  RH  070%=      5-min Rain = 0
KAI1 131403Z 04004KT M06/M11 A303 RMK A01 T10631110  RH  069%=      5-min Rain = 0
KAI1 131404Z 04004KT M06/M11 A303 RMK A01 T10631110  RH  069%=      5-min Rain = 0
KAI1 131405Z 04004KT M06/M11 A303 RMK A01 T10631110  RH  069%=      5-min Rain = 0
KAI1 131406Z 04005KT M06/M11 A3029 RMK A01 T10631110  RH  069%=      5-min Rain = 0
KAI1 131407Z 04004KT M06/M11 A303 RMK A01 T10621109  RH  069%=      5-min Rain = 0
KAI1 131408Z 04004KT M06/M11 A303 RMK A01 T10621110  RH  069%=      5-min Rain = 0
KAI1 131409Z 04004KT M06/M11 A303 RMK A01 T10621110  RH  069%=      5-min Rain = 0
KAI1 131410Z 04004KT M06/M11 A303 RMK A01 T10621110  RH  069%=      5-min Rain = 0
KAI1 131411Z 04005KT M06/M11 A303 RMK A01 T10611111  RH  068%=      5-min Rain = 0
KAI1 131412Z 04004KT M06/M11 A303 RMK A01 T10611111  RH  068%=      5-min Rain = 0
KAI1 131413Z 04004KT M06/M11 A303 RMK A01 T10611112  RH  068%=      5-min Rain = 0
KAI1 131414Z 03004KT M06/M11 A303 RMK A01 T10611111  RH  068%=      5-min Rain = 0
KAI1 131415Z 03004KT M06/M11 A303 RMK A01 T10601110  RH  068%=      5-min Rain = 0
KAI1 131416Z 03004KT M06/M11 A303 RMK A01 T10611110  RH  068%=      5-min Rain = 0
KAI1 131417Z 04004KT M06/M11 A303 RMK A01 T10601109  RH  068%=      5-min Rain = 0
KAI1 131418Z 04004KT M06/M11 A303 RMK A01 T10601109  RH  068%=      5-min Rain = 0
KAI1 131419Z 04003KT M06/M11 A303 RMK A01 T10591107  RH  069%=      5-min Rain = 0
KAI1 131420Z 04003KT M06/M11 A303 RMK A01 T10581106  RH  069%=      5-min Rain = 0
KAI1 131421Z 04003KT M06/M11 A303 RMK A01 T10581106  RH  069%=      5-min Rain = 0
KAI1 131422Z 04003KT M06/M11 A303 RMK A01 T10571106  RH  069%=      5-min Rain = 0
KAI1 131423Z 04003KT M06/M11 A303 RMK A01 T10571105  RH  069%=      5-min Rain = 0
KAI1 131424Z 04003KT M06/M10 A303 RMK A01 T10561104  RH  069%=      5-min Rain = 0
KAI1 131425Z 04002KT M06/M10 A303 RMK A01 T10561103  RH  069%=      5-min Rain = 0
KAI1 131426Z 04002KT M06/M10 A303 RMK A01 T10551103  RH  069%=      5-min Rain = 0
KAI1 131427Z 04002KT M06/M10 A303 RMK A01 T10551103  RH  069%=      5-min Rain = 0
KAI1 131428Z 03002KT M05/M10 A303 RMK A01 T10541103  RH  069%=      5-min Rain = 0
KAI1 131429Z 04002KT M05/M10 A303 RMK A01 T10531101  RH  069%=      5-min Rain = 0
KAI1 131430Z 05002KT M05/M10 A303 RMK A01 T10521102  RH  068%=      5-min Rain = 0
KAI1 131431Z 05002KT M05/M10 A303 RMK A01 T10521101  RH  068%=      5-min Rain = 0
KAI1 131432Z 05002KT M05/M10 A303 RMK A01 T10511101  RH  068%=      5-min Rain = 0
KAI1 131433Z 06002KT M05/M10 A303 RMK A01 T10501100  RH  068%=      5-min Rain = 0
KAI1 131434Z 06002KT M05/M10 A303 RMK A01 T10501099  RH  068%=      5-min Rain = 0
KAI1 131435Z 09001KT M05/M10 A303 RMK A01 T10491098  RH  069%=      5-min Rain = 0
KAI1 131436Z 09002KT M05/M10 A303 RMK A01 T10491098  RH  068%=      5-min Rain = 0
KAI1 131437Z 11002KT M05/M10 A303 RMK A01 T10481097  RH  069%=      5-min Rain = 0
KAI1 131438Z 12002KT M05/M10 A303 RMK A01 T10481097  RH  069%=      5-min Rain = 0
KAI1 131439Z 12002KT M05/M10 A303 RMK A01 T10471095  RH  069%=      5-min Rain = 0
KAI1 131440Z 12002KT M05/M10 A3031 RMK A01 T10461095  RH  069%=      5-min Rain = 0
KAI1 131441Z 12002KT M05/M10 A303 RMK A01 T10451095  RH  068%=      5-min Rain = 0
KAI1 131442Z 12003KT M04/M09 A3031 RMK A01 T10441094  RH  069%=      5-min Rain = 0
KAI1 131443Z 12004KT M04/M09 A3031 RMK A01 T10421088  RH  071%=      5-min Rain = 0
KAI1 131444Z 12004KT M04/M08 A3031 RMK A01 T10401080  RH  074%=      5-min Rain = 0
KAI1 131445Z 13004KT M04/M08 A3031 RMK A01 T10391077  RH  074%=      5-min Rain = 0
KAI1 131446Z 12004KT M04/M08 A3031 RMK A01 T10371077  RH  074%=      5-min Rain = 0
KAI1 131447Z 12004KT M04/M08 A303 RMK A01 T10371079  RH  072%=      5-min Rain = 0
KAI1 131448Z 13003KT M04/M08 A3031 RMK A01 T10371080  RH  072%=      5-min Rain = 0
KAI1 131449Z 12004KT M04/M08 A3031 RMK A01 T10371081  RH  072%=      5-min Rain = 0
KAI1 131450Z 13005KT M04/M08 A3031 RMK A01 T10371080  RH  072%=      5-min Rain = 0
KAI1 131451Z 13005KT M04/M08 A3031 RMK A01 T10361077  RH  073%=      5-min Rain = 0
KAI1 131452Z 14005KT M04/M08 A3031 RMK A01 T10351075  RH  074%=      5-min Rain = 0
KAI1 131453Z 14005KT M03/M08 A3031 RMK A01 T10341075  RH  073%=      5-min Rain = 0
KAI1 131454Z 13004KT M03/M08 A3031 RMK A01 T10331075  RH  073%=      5-min Rain = 0
KAI1 131455Z 14004KT M03/M08 A3031 RMK A01 T10341075  RH  073%=      5-min Rain = 0
KAI1 131456Z 14004KT M03/M08 A3031 RMK A01 T10331076  RH  072%=      5-min Rain = 0
KAI1 131457Z 14004KT M03/M08 A3031 RMK A01 T10331076  RH  072%=      5-min Rain = 0
KAI1 131458Z 13004KT M03/M08 A3031 RMK A01 T10321076  RH  072%=      5-min Rain = 0
KAI1 131459Z 14003KT M03/M08 A3031 RMK A01 T10321076  RH  071%=      5-min Rain = 0
KAI1 131500Z 14004KT M03/M08 A3031 RMK A01 T10311076  RH  071%=      5-min Rain = 0
KAI1 131501Z 13004KT M03/M07 A3031 RMK A01 T10301074  RH  071%=      5-min Rain = 0
KAI1 131502Z 13004KT M03/M07 A3031 RMK A01 T10301074  RH  071%=      5-min Rain = 0
KAI1 131503Z 13004KT M03/M07 A3031 RMK A01 T10291074  RH  071%=      5-min Rain = 0
KAI1 131504Z 12003KT M03/M07 A3031 RMK A01 T10291073  RH  071%=      5-min Rain = 0
KAI1 131505Z 13003KT M03/M07 A3031 RMK A01 T10291074  RH  071%=      5-min Rain = 0
KAI1 131506Z 12003KT M03/M07 A3031 RMK A01 T10291074  RH  071%=      5-min Rain = 0
KAI1 131507Z 14005KT M03/M07 A3031 RMK A01 T10281073  RH  071%=      5-min Rain = 0
KAI1 131508Z 15005KT M03/M07 A3031 RMK A01 T10271071  RH  072%=      5-min Rain = 0
KAI1 131509Z 16004KT M03/M07 A3031 RMK A01 T10261071  RH  071%=      5-min Rain = 0
KAI1 131510Z 15005KT M03/M07 A3031 RMK A01 T10251071  RH  071%=      5-min Rain = 0
KAI1 131511Z 15005KT M02/M07 A3031 RMK A01 T10241070  RH  070%=      5-min Rain = 0
KAI1 131512Z 15005KT M02/M07 A3031 RMK A01 T10241071  RH  070%=      5-min Rain = 0
KAI1 131513Z 15004KT M02/M07 A3031 RMK A01 T10231071  RH  070%=      5-min Rain = 0
KAI1 131514Z 15005KT M02/M07 A3031 RMK A01 T10221070  RH  070%=      5-min Rain = 0
KAI1 131515Z 15004KT M02/M07 A3031 RMK A01 T10211069  RH  069%=      5-min Rain = 0
KAI1 131516Z 16004KT M02/M07 A3031 RMK A01 T10201070  RH  069%=      5-min Rain = 0
KAI1 131517Z 16005KT M02/M07 A3032 RMK A01 T10201070  RH  069%=      5-min Rain = 0
KAI1 131518Z 16004KT M02/M07 A3032 RMK A01 T10201070  RH  069%=      5-min Rain = 0
KAI1 131519Z 16005KT M02/M07 A3032 RMK A01 T10191069  RH  069%=      5-min Rain = 0
KAI1 131520Z 16005KT M02/M07 A3032 RMK A01 T10181068  RH  069%=      5-min Rain = 0
KAI1 131521Z 17006KT M02/M07 A3032 RMK A01 T10181068  RH  069%=      5-min Rain = 0
KAI1 131522Z 17004KT M02/M07 A3032 RMK A01 T10171067  RH  069%=      5-min Rain = 0
KAI1 131523Z 16006KT M02/M07 A3032 RMK A01 T10161066  RH  069%=      5-min Rain = 0
KAI1 131524Z 16005KT M01/M07 A3032 RMK A01 T10141065  RH  068%=      5-min Rain = 0
KAI1 131525Z 17004KT M01/M07 A3032 RMK A01 T10131065  RH  068%=      5-min Rain = 0
KAI1 131526Z 17004KT M01/M07 A3033 RMK A01 T10131065  RH  067%=      5-min Rain = 0
KAI1 131527Z 18006KT M01/M07 A3033 RMK A01 T10131065  RH  067%=      5-min Rain = 0
KAI1 131528Z 17006KT M01/M07 A3033 RMK A01 T10121065  RH  067%=      5-min Rain = 0
KAI1 131529Z 18005KT M01/M06 A3033 RMK A01 T10121064  RH  068%=      5-min Rain = 0
KAI1 131530Z 19005KT M01/M06 A3033 RMK A01 T10111063  RH  068%=      5-min Rain = 0
KAI1 131531Z 19005KT M01/M06 A3033 RMK A01 T10111063  RH  067%=      5-min Rain = 0
KAI1 131532Z 18005KT M01/M06 A3033 RMK A01 T10101063  RH  067%=      5-min Rain = 0
KAI1 131533Z 18004KT M01/M06 A3033 RMK A01 T10091063  RH  067%=      5-min Rain = 0
KAI1 131534Z 18004KT M01/M06 A3033 RMK A01 T10091063  RH  067%=      5-min Rain = 0
KAI1 131535Z 19004KT M01/M06 A3033 RMK A01 T10081062  RH  066%=      5-min Rain = 0
KAI1 131536Z 17004KT M01/M06 A3033 RMK A01 T10061061  RH  066%=      5-min Rain = 0
KAI1 131537Z 18004KT M00/M06 A3033 RMK A01 T10031060  RH  066%=      5-min Rain = 0
KAI1 131538Z 18004KT M00/M06 A3033 RMK A01 T10021060  RH  065%=      5-min Rain = 0
KAI1 131539Z 18003KT M00/M06 A3033 RMK A01 T10021060  RH  065%=      5-min Rain = 0
KAI1 131540Z 19003KT M00/M06 A3033 RMK A01 T10021060  RH  065%=      5-min Rain = 0
KAI1 131541Z 19005KT M00/M06 A3033 RMK A01 T10011059  RH  065%=      5-min Rain = 0
KAI1 131542Z 18004KT 00/06 A3033 RMK A01 T00-00-59  RH  064%=      5-min Rain = 0
KAI1 131543Z 18004KT 00/06 A3033 RMK A01 T00000-59  RH  064%=      5-min Rain = 0
KAI1 131544Z 18006KT 00/M06 A3033 RMK A01 T00021058  RH  064%=      5-min Rain = 0
KAI1 131545Z 19005KT 00/M06 A3033 RMK A01 T00021059  RH  064%=      5-min Rain = 0
KAI1 131546Z 18006KT 00/M06 A3033 RMK A01 T00021059  RH  064%=      5-min Rain = 0
KAI1 131547Z 17006KT 00/M06 A3033 RMK A01 T00021058  RH  064%=      5-min Rain = 0
KAI1 131548Z 18007KT 00/M06 A3033 RMK A01 T00041058  RH  063%=      5-min Rain = 0
KAI1 131549Z 17007KT 00/M06 A3033 RMK A01 T00041058  RH  063%=      5-min Rain = 0
KAI1 131550Z 17007KT 00/M06 A3033 RMK A01 T00041058  RH  063%=      5-min Rain = 0
KAI1 131551Z 17007KT 01/M06 A3033 RMK A01 T00061057  RH  063%=      5-min Rain = 0
KAI1 131552Z 17008KT 01/M06 A3033 RMK A01 T00071056  RH  063%=      5-min Rain = 0
KAI1 131553Z 19006KT 01/M06 A3033 RMK A01 T00091056  RH  062%=      5-min Rain = 0
KAI1 131554Z 18006KT 01/M06 A3033 RMK A01 T00091056  RH  062%=      5-min Rain = 0
KAI1 131555Z 19005KT 01/M06 A3033 RMK A01 T00091056  RH  062%=      5-min Rain = 0
KAI1 131556Z 17005KT 01/M06 A3033 RMK A01 T00091056  RH  062%=      5-min Rain = 0
KAI1 131557Z 18006KT 01/M06 A3033 RMK A01 T00111056  RH  061%=      5-min Rain = 0
KAI1 131558Z 18006KT 01/M06 A3033 RMK A01 T00121056  RH  061%=      5-min Rain = 0
KAI1 131559Z 18005KT 01/M06 A3033 RMK A01 T00111056  RH  061%=      5-min Rain = 0
KAI1 131600Z 19005KT 01/M06 A3033 RMK A01 T00111056  RH  061%=      5-min Rain = 0
KAI1 131601Z 17005KT 01/M06 A3033 RMK A01 T00121056  RH  061%=      5-min Rain = 0
KAI1 131602Z 16005KT 01/M06 A3033 RMK A01 T00121055  RH  061%=      5-min Rain = 0
KAI1 131603Z 19005KT 01/M06 A3033 RMK A01 T00141055  RH  060%=      5-min Rain = 0
KAI1 131604Z 19004KT 02/M06 A3033 RMK A01 T00161055  RH  059%=      5-min Rain = 0
KAI1 131605Z 18005KT 02/M06 A3033 RMK A01 T00171055  RH  059%=      5-min Rain = 0
KAI1 131606Z 17005KT 02/M05 A3033 RMK A01 T00191053  RH  059%=      5-min Rain = 0
KAI1 131607Z 18004KT 02/M05 A3033 RMK A01 T00221053  RH  058%=      5-min Rain = 0
KAI1 131608Z 17005KT 02/M05 A3033 RMK A01 T00241051  RH  058%=      5-min Rain = 0
KAI1 131609Z 18005KT 03/M05 A3033 RMK A01 T00261051  RH  057%=      5-min Rain = 0
KAI1 131610Z 18006KT 03/M05 A3033 RMK A01 T00281050  RH  056%=      5-min Rain = 0
KAI1 131611Z 17005KT 03/M05 A3033 RMK A01 T00281051  RH  056%=      5-min Rain = 0
KAI1 131612Z 16004KT 03/M05 A3033 RMK A01 T00301049  RH  056%=      5-min Rain = 0
KAI1 131613Z 18004KT 03/M05 A3033 RMK A01 T00331049  RH  055%=      5-min Rain = 0
KAI1 131614Z 18004KT 04/M05 A3033 RMK A01 T00351048  RH  055%=      5-min Rain = 0
KAI1 131615Z 19005KT 04/M05 A3033 RMK A01 T00351050  RH  054%=      5-min Rain = 0
KAI1 131616Z 21004KT 03/M05 A3033 RMK A01 T00321052  RH  054%=      5-min Rain = 0
KAI1 131617Z 21004KT 03/M05 A3033 RMK A01 T00311051  RH  055%=      5-min Rain = 0
KAI1 131618Z 20003KT 03/M05 A3033 RMK A01 T00321050  RH  055%=      5-min Rain = 0
KAI1 131619Z 19004KT 04/M05 A3034 RMK A01 T00351047  RH  055%=      5-min Rain = 0
KAI1 131620Z 16003KT 04/M05 A3034 RMK A01 T00371046  RH  055%=      5-min Rain = 0
KAI1 131621Z 19002KT 04/M05 A3034 RMK A01 T00421045  RH  053%=      5-min Rain = 0
KAI1 131622Z 21003KT 04/M05 A3034 RMK A01 T00431046  RH  053%=      5-min Rain = 0
KAI1 131623Z 21004KT 05/M04 A3034 RMK A01 T00461043  RH  052%=      5-min Rain = 0
KAI1 131624Z 21009KT 05/M04 A3034 RMK A01 T00481041  RH  052%=      5-min Rain = 0
KAI1 131625Z 19010KT 05/M04 A3034 RMK A01 T00511035  RH  054%=      5-min Rain = 0
KAI1 131626Z 20009KT 05/M04 A3034 RMK A01 T00521035  RH  053%=      5-min Rain = 0
KAI1 131627Z 19010KT 05/M04 A3034 RMK A01 T00521035  RH  054%=      5-min Rain = 0
KAI1 131628Z 18012KT 06/M03 A3034 RMK A01 T00551032  RH  053%=      5-min Rain = 0
KAI1 131629Z 19009KT 06/M03 A3034 RMK A01 T00571033  RH  052%=      5-min Rain = 0
KAI1 131630Z 20010KT 06/M03 A3034 RMK A01 T00571032  RH  053%=      5-min Rain = 0
KAI1 131631Z 19010KT 06/M03 A3033 RMK A01 T00591032  RH  052%=      5-min Rain = 0
KAI1 131632Z 20009KT 06/M03 A3033 RMK A01 T00591033  RH  052%=      5-min Rain = 0
KAI1 131633Z 21008KT 06/M03 A3033 RMK A01 T00601031  RH  052%=      5-min Rain = 0
KAI1 131634Z 21010KT 06/M03 A3033 RMK A01 T00621029  RH  052%=      5-min Rain = 0
KAI1 131635Z 20013KT 06/M03 A3033 RMK A01 T00621027  RH  053%=      5-min Rain = 0
KAI1 131636Z 19013KT 06/M03 A3033 RMK A01 T00631025  RH  053%=      5-min Rain = 0
KAI1 131637Z 20012KT 06/M03 A3033 RMK A01 T00631026  RH  053%=      5-min Rain = 0
KAI1 131638Z 20011KT 06/M03 A3034 RMK A01 T00631026  RH  053%=      5-min Rain = 0
KAI1 131639Z 21011KT 07/M02 A3034 RMK A01 T00661024  RH  053%=      5-min Rain = 0
KAI1 131640Z 21014KT 07/M03 A3034 RMK A01 T00671025  RH  052%=      5-min Rain = 0
KAI1 131641Z 21013KT 07/M03 A3034 RMK A01 T00661027  RH  051%=      5-min Rain = 0
KAI1 131642Z 22013KT 06/M03 A3034 RMK A01 T00641027  RH  052%=      5-min Rain = 0
KAI1 131643Z 21010KT 06/M03 A3034 RMK A01 T00631027  RH  052%=      5-min Rain = 0
KAI1 131644Z 21010KT 07/M03 A3034 RMK A01 T00661026  RH  052%=      5-min Rain = 0
KAI1 131645Z 20012KT 07/M03 A3033 RMK A01 T00671025  RH  052%=      5-min Rain = 0
KAI1 131646Z 20011KT 07/M03 A3033 RMK A01 T00681026  RH  051%=      5-min Rain = 0
KAI1 131647Z 20012KT 07/M03 A3033 RMK A01 T00661027  RH  051%=      5-min Rain = 0
KAI1 131648Z 20010KT 06/M03 A3033 RMK A01 T00641026  RH  052%=      5-min Rain = 0
KAI1 131649Z 19009KT 06/M03 A3033 RMK A01 T00641026  RH  053%=      5-min Rain = 0
KAI1 131650Z 21011KT 06/M03 A3033 RMK A01 T00631026  RH  053%=      5-min Rain = 0
KAI1 131651Z 21013KT 06/M03 A3033 RMK A01 T00641025  RH  053%=      5-min Rain = 0
KAI1 131652Z 22013KT 06/M03 A3033 RMK A01 T00621026  RH  053%=      5-min Rain = 0
KAI1 131653Z 22014KT 06/M03 A3033 RMK A01 T00601026  RH  054%=      5-min Rain = 0
KAI1 131654Z 21012KT 06/M03 A3033 RMK A01 T00591026  RH  055%=      5-min Rain = 0
KAI1 131655Z 20012KT 06/M03 A3033 RMK A01 T00581026  RH  055%=      5-min Rain = 0
KAI1 131656Z 20013KT 06/M03 A3033 RMK A01 T00571025  RH  055%=      5-min Rain = 0
KAI1 131657Z 20014KT 06/M03 A3033 RMK A01 T00571025  RH  056%=      5-min Rain = 0
KAI1 131658Z 20012KT 06/M03 A3033 RMK A01 T00551026  RH  056%=      5-min Rain = 0
KAI1 131659Z 19012KT 06/M03 A3033 RMK A01 T00551026  RH  056%=      5-min Rain = 0
KAI1 131700Z 21011KT 06/M03 A3033 RMK A01 T00551026  RH  056%=      5-min Rain = 0
KAI1 131701Z 19012KT 06/M03 A3033 RMK A01 T00551026  RH  056%=      5-min Rain = 0
KAI1 131702Z 19012KT 06/M03 A3033 RMK A01 T00561026  RH  056%=      5-min Rain = 0
KAI1 131703Z 21012KT 06/M03 A3033 RMK A01 T00551026  RH  056%=      5-min Rain = 0
KAI1 131704Z 20011KT 06/M03 A3033 RMK A01 T00551026  RH  056%=      5-min Rain = 0
KAI1 131705Z 20010KT 06/M03 A3033 RMK A01 T00561026  RH  056%=      5-min Rain = 0
KAI1 131706Z 20012KT 06/M02 A3033 RMK A01 T00571024  RH  056%=      5-min Rain = 0
KAI1 131707Z 19012KT 06/M03 A3033 RMK A01 T00601025  RH  055%=      5-min Rain = 0
KAI1 131708Z 20011KT 06/M03 A3033 RMK A01 T00581026  RH  055%=      5-min Rain = 0
KAI1 131709Z 19011KT 06/M03 A3033 RMK A01 T00571026  RH  055%=      5-min Rain = 0
KAI1 131710Z 19012KT 06/M03 A3033 RMK A01 T00561026  RH  056%=      5-min Rain = 0
KAI1 131711Z 19012KT 06/M03 A3033 RMK A01 T00551026  RH  056%=      5-min Rain = 0
KAI1 131712Z 20012KT 06/M03 A3033 RMK A01 T00561025  RH  056%=      5-min Rain = 0
KAI1 131713Z 21012KT 06/M03 A3033 RMK A01 T00561025  RH  056%=      5-min Rain = 0
KAI1 131714Z 21012KT 06/M03 A3033 RMK A01 T00561025  RH  056%=      5-min Rain = 0
KAI1 131715Z 20013KT 06/M03 A3033 RMK A01 T00571025  RH  056%=      5-min Rain = 0
KAI1 131716Z 20011KT 06/M03 A3033 RMK A01 T00561026  RH  056%=      5-min Rain = 0
KAI1 131717Z 21010KT 06/M03 A3033 RMK A01 T00561025  RH  056%=      5-min Rain = 0
KAI1 131718Z 21011KT 06/M02 A3033 RMK A01 T00571024  RH  056%=      5-min Rain = 0
KAI1 131719Z 20012KT 06/M02 A3033 RMK A01 T00591024  RH  055%=      5-min Rain = 0
KAI1 131720Z 21011KT 06/M03 A3033 RMK A01 T00581025  RH  055%=      5-min Rain = 0
KAI1 131721Z 20012KT 06/M02 A3033 RMK A01 T00581024  RH  056%=      5-min Rain = 0
KAI1 131722Z 20012KT 06/M02 A3033 RMK A01 T00611022  RH  055%=      5-min Rain = 0
KAI1 131723Z 21013KT 06/M02 A3033 RMK A01 T00631022  RH  054%=      5-min Rain = 0
KAI1 131724Z 21015KT 06/M02 A3033 RMK A01 T00631023  RH  054%=      5-min Rain = 0
KAI1 131725Z 21012KT 06/M02 A3033 RMK A01 T00621024  RH  054%=      5-min Rain = 0
KAI1 131726Z 21011KT 06/M02 A3033 RMK A01 T00621023  RH  055%=      5-min Rain = 0
KAI1 131727Z 22012KT 07/M02 A3032 RMK A01 T00661021  RH  054%=      5-min Rain = 0
KAI1 131728Z 20012KT 07/M02 A3032 RMK A01 T00651022  RH  054%=      5-min Rain = 0
KAI1 131729Z 20014KT 07/M02 A3032 RMK A01 T00651023  RH  053%=      5-min Rain = 0
KAI1 131730Z 21011KT 06/M02 A3032 RMK A01 T00631023  RH  054%=      5-min Rain = 0
KAI1 131731Z 21013KT 06/M02 A3032 RMK A01 T00631024  RH  054%=      5-min Rain = 0
KAI1 131732Z 21013KT 06/M02 A3032 RMK A01 T00631024  RH  054%=      5-min Rain = 0
KAI1 131733Z 22010KT 07/M02 A3032 RMK A01 T00651023  RH  054%=      5-min Rain = 0
KAI1 131734Z 23011KT 07/M02 A3032 RMK A01 T00671023  RH  053%=      5-min Rain = 0
KAI1 131735Z 23010KT 07/M02 A3032 RMK A01 T00691022  RH  052%=      5-min Rain = 0
KAI1 131736Z 22013KT 07/M02 A3032 RMK A01 T00701021  RH  052%=      5-min Rain = 0
KAI1 131737Z 22012KT 07/M02 A3032 RMK A01 T00711022  RH  052%=      5-min Rain = 0
KAI1 131738Z 22013KT 07/M02 A3032 RMK A01 T00681024  RH  052%=      5-min Rain = 0
KAI1 131739Z 22012KT 07/M03 A3032 RMK A01 T00661025  RH  052%=      5-min Rain = 0
KAI1 131740Z 23012KT 07/M02 A3033 RMK A01 T00661024  RH  053%=      5-min Rain = 0
KAI1 131741Z 23010KT 07/M02 A3033 RMK A01 T00671024  RH  052%=      5-min Rain = 0
KAI1 131742Z 22010KT 07/M02 A3033 RMK A01 T00681024  RH  052%=      5-min Rain = 0
KAI1 131743Z 20009KT 07/M02 A3032 RMK A01 T00701022  RH  052%=      5-min Rain = 0
KAI1 131744Z 22010KT 07/M02 A3032 RMK A01 T00721022  RH  051%=      5-min Rain = 0
KAI1 131745Z 21011KT 07/M02 A3032 RMK A01 T00731022  RH  051%=      5-min Rain = 0
KAI1 131746Z 22009KT 07/M02 A3032 RMK A01 T00731023  RH  051%=      5-min Rain = 0
KAI1 131747Z 23012KT 07/M02 A3032 RMK A01 T00731023  RH  051%=      5-min Rain = 0
KAI1 131748Z 22011KT 07/M02 A3032 RMK A01 T00731022  RH  051%=      5-min Rain = 0
KAI1 131749Z 22012KT 07/M02 A3032 RMK A01 T00741023  RH  050%=      5-min Rain = 0
KAI1 131750Z 21009KT 07/M02 A3032 RMK A01 T00741022  RH  051%=      5-min Rain = 0
KAI1 131751Z 21008KT 08/M02 A3032 RMK A01 T00751022  RH  050%=      5-min Rain = 0
KAI1 131752Z 19011KT 08/M02 A3032 RMK A01 T00751021  RH  051%=      5-min Rain = 0
KAI1 131753Z 20011KT 08/M02 A3032 RMK A01 T00761022  RH  050%=      5-min Rain = 0
KAI1 131754Z 21009KT 08/M02 A3032 RMK A01 T00761022  RH  050%=      5-min Rain = 0
KAI1 131755Z 20013KT 08/M02 A3032 RMK A01 T00781020  RH  050%=      5-min Rain = 0
KAI1 131756Z 20012KT 08/M02 A3031 RMK A01 T00791021  RH  049%=      5-min Rain = 0
KAI1 131757Z 20010KT 08/M02 A3031 RMK A01 T00771023  RH  049%=      5-min Rain = 0
KAI1 131758Z 21009KT 08/M02 A3031 RMK A01 T00761022  RH  050%=      5-min Rain = 0
KAI1 131759Z 21010KT 08/M02 A3031 RMK A01 T00761022  RH  050%=      5-min Rain = 0
KAI1 131800Z 20011KT 08/M02 A3031 RMK A01 T00781020  RH  050%=      5-min Rain = 0
KAI1 131801Z 23012KT 08/M02 A3031 RMK A01 T00801020  RH  049%=      5-min Rain = 0
KAI1 131802Z 23011KT 08/M02 A3031 RMK A01 T00801022  RH  049%=      5-min Rain = 0
KAI1 131803Z 20012KT 08/M02 A3031 RMK A01 T00791021  RH  049%=      5-min Rain = 0
KAI1 131804Z 19012KT 08/M02 A3031 RMK A01 T00811019  RH  049%=      5-min Rain = 0
KAI1 131805Z 20013KT 09/M02 A3031 RMK A01 T00851017  RH  049%=      5-min Rain = 0
KAI1 131806Z 21012KT 09/M02 A3031 RMK A01 T00851020  RH  047%=      5-min Rain = 0
KAI1 131807Z 20009KT 08/M02 A3031 RMK A01 T00831022  RH  048%=      5-min Rain = 0
KAI1 131808Z 20011KT 08/M02 A3031 RMK A01 T00821020  RH  049%=      5-min Rain = 0
KAI1 131809Z 20012KT 09/M02 A3031 RMK A01 T00861019  RH  048%=      5-min Rain = 0
KAI1 131810Z 22010KT 08/M02 A3031 RMK A01 T00831022  RH  048%=      5-min Rain = 0
KAI1 131811Z 21012KT 08/M02 A3031 RMK A01 T00821021  RH  048%=      5-min Rain = 0
KAI1 131812Z 20012KT 08/M02 A3031 RMK A01 T00831020  RH  048%=      5-min Rain = 0
KAI1 131813Z 21011KT 08/M02 A3031 RMK A01 T00831020  RH  048%=      5-min Rain = 0
KAI1 131814Z 21009KT 08/M02 A303 RMK A01 T00841020  RH  048%=      5-min Rain = 0
KAI1 131815Z 20008KT 09/M02 A303 RMK A01 T00851019  RH  048%=      5-min Rain = 0
KAI1 131816Z 20009KT 09/M02 A303 RMK A01 T00851019  RH  048%=      5-min Rain = 0
KAI1 131817Z 22006KT 09/M02 A303 RMK A01 T00851019  RH  048%=      5-min Rain = 0
KAI1 131818Z 20010KT 09/M02 A303 RMK A01 T00861019  RH  048%=      5-min Rain = 0
KAI1 131819Z 20009KT 09/M02 A303 RMK A01 T00871020  RH  047%=      5-min Rain = 0
KAI1 131820Z 20012KT 09/M02 A303 RMK A01 T00871019  RH  047%=      5-min Rain = 0
KAI1 131821Z 23010KT 09/M02 A303 RMK A01 T00881020  RH  047%=      5-min Rain = 0
KAI1 131822Z 22012KT 09/M02 A303 RMK A01 T00871022  RH  046%=      5-min Rain = 0
KAI1 131823Z 21011KT 09/M02 A303 RMK A01 T00851022  RH  047%=      5-min Rain = 0
KAI1 131824Z 21008KT 09/M02 A303 RMK A01 T00861020  RH  047%=      5-min Rain = 0
KAI1 131825Z 20008G13KT 09/M02 A303 RMK A01 T00871020  RH  047%=      5-min Rain = 0
KAI1 131826Z 22010KT 09/M02 A303 RMK A01 T00891019  RH  047%=      5-min Rain = 0
KAI1 131827Z 23009KT 09/M02 A303 RMK A01 T00911020  RH  046%=      5-min Rain = 0
KAI1 131828Z 21011G17KT 09/M02 A303 RMK A01 T00911020  RH  046%=      5-min Rain = 0
KAI1 131829Z 20010KT 09/M02 A303 RMK A01 T00921019  RH  046%=      5-min Rain = 0
KAI1 131830Z 21009KT 09/M02 A303 RMK A01 T00911020  RH  046%=      5-min Rain = 0
KAI1 131831Z 21006KT 09/M02 A303 RMK A01 T00881022  RH  046%=      5-min Rain = 0
KAI1 131832Z 21007KT 09/M02 A303 RMK A01 T00871021  RH  047%=      5-min Rain = 0
KAI1 131833Z 20011KT 09/M02 A303 RMK A01 T00891019  RH  047%=      5-min Rain = 0
KAI1 131834Z 20010KT 09/M02 A303 RMK A01 T00921019  RH  046%=      5-min Rain = 0
KAI1 131835Z 19008KT 09/M02 A303 RMK A01 T00921020  RH  046%=      5-min Rain = 0
KAI1 131836Z 21009KT 09/M02 A303 RMK A01 T00921019  RH  046%=      5-min Rain = 0
KAI1 131837Z 22010KT 10/M02 A303 RMK A01 T00951019  RH  045%=      5-min Rain = 0
KAI1 131838Z 22009KT 10/M02 A303 RMK A01 T00951021  RH  044%=      5-min Rain = 0
KAI1 131839Z 20011KT 09/M02 A303 RMK A01 T00931021  RH  045%=      5-min Rain = 0
KAI1 131840Z 22010KT 09/M02 A303 RMK A01 T00931021  RH  045%=      5-min Rain = 0
KAI1 131841Z 22009KT 09/M02 A303 RMK A01 T00921021  RH  045%=      5-min Rain = 0
KAI1 131842Z 20006KT 09/M02 A303 RMK A01 T00921021  RH  045%=      5-min Rain = 0
KAI1 131843Z 22008KT 09/M02 A3029 RMK A01 T00921020  RH  046%=      5-min Rain = 0
KAI1 131844Z 21010KT 09/M02 A3029 RMK A01 T00941019  RH  045%=      5-min Rain = 0
KAI1 131845Z 20009KT 10/M02 A3029 RMK A01 T00961019  RH  045%=      5-min Rain = 0
KAI1 131846Z 20008KT 10/M02 A3029 RMK A01 T00961018  RH  045%=      5-min Rain = 0
KAI1 131847Z 21014KT 10/M02 A3029 RMK A01 T00991018  RH  044%=      5-min Rain = 0
KAI1 131848Z 22012KT 10/M02 A3029 RMK A01 T01001020  RH  043%=      5-min Rain = 0
KAI1 131849Z 21011KT 10/M02 A3029 RMK A01 T01011020  RH  043%=      5-min Rain = 0
KAI1 131850Z 22010KT 10/M02 A3029 RMK A01 T00991022  RH  043%=      5-min Rain = 0
KAI1 131851Z 20008KT 10/M02 A3029 RMK A01 T00961022  RH  044%=      5-min Rain = 0
KAI1 131852Z 21007KT 10/M02 A3029 RMK A01 T00961021  RH  044%=      5-min Rain = 0
KAI1 131853Z 22010KT 10/M02 A3029 RMK A01 T00961020  RH  044%=      5-min Rain = 0
KAI1 131854Z 21008KT 10/M02 A3029 RMK A01 T00971021  RH  043%=      5-min Rain = 0
KAI1 131855Z 23007KT 10/M02 A3028 RMK A01 T00961022  RH  044%=      5-min Rain = 0
KAI1 131856Z 21006KT 10/M02 A3028 RMK A01 T00951021  RH  044%=      5-min Rain = 0
KAI1 131857Z 22007KT 10/M02 A3028 RMK A01 T00971020  RH  044%=      5-min Rain = 0
KAI1 131858Z 23009KT 10/M02 A3028 RMK A01 T00991021  RH  043%=      5-min Rain = 0
KAI1 131859Z 21009KT 10/M02 A3028 RMK A01 T00991021  RH  043%=      5-min Rain = 0
KAI1 131900Z 21011KT 10/M02 A3028 RMK A01 T00991020  RH  043%=      5-min Rain = 0
KAI1 131901Z 21009KT 10/M02 A3028 RMK A01 T00991020  RH  043%=      5-min Rain = 0
KAI1 131902Z 18008KT 10/M02 A3028 RMK A01 T00991020  RH  043%=      5-min Rain = 0
KAI1 131903Z 19011KT 10/M02 A3028 RMK A01 T00981020  RH  044%=      5-min Rain = 0
KAI1 131904Z 23008KT 10/M02 A3028 RMK A01 T00991020  RH  043%=      5-min Rain = 0
KAI1 131905Z 21008KT 10/M02 A3028 RMK A01 T01011020  RH  043%=      5-min Rain = 0
KAI1 131906Z 20009KT 10/M02 A3028 RMK A01 T01021020  RH  043%=      5-min Rain = 0
KAI1 131907Z 19008KT 10/M02 A3028 RMK A01 T01031019  RH  043%=      5-min Rain = 0
KAI1 131908Z 19010KT 10/M02 A3028 RMK A01 T01021020  RH  043%=      5-min Rain = 0
KAI1 131909Z 19009KT 10/M02 A3028 RMK A01 T01001021  RH  043%=      5-min Rain = 0
KAI1 131910Z 20011KT 10/M02 A3028 RMK A01 T01001019  RH  043%=      5-min Rain = 0
KAI1 131911Z 21009KT 10/M02 A3028 RMK A01 T01041018  RH  042%=      5-min Rain = 0
KAI1 131912Z 22006KT 10/M02 A3028 RMK A01 T01021022  RH  042%=      5-min Rain = 0
KAI1 131913Z 19010KT 10/M02 A3028 RMK A01 T01021018  RH  043%=      5-min Rain = 0
KAI1 131914Z 21010KT 11/M02 A3028 RMK A01 T01061016  RH  042%=      5-min Rain = 0
KAI1 131915Z 20009KT 11/M02 A3028 RMK A01 T01061018  RH  042%=      5-min Rain = 0
KAI1 131916Z 21008KT 11/M02 A3028 RMK A01 T01071018  RH  042%=      5-min Rain = 0
KAI1 131917Z 21006G11KT 11/M02 A3028 RMK A01 T01051017  RH  043%=      5-min Rain = 0
KAI1 131918Z 19013KT 11/M02 A3027 RMK A01 T01071015  RH  042%=      5-min Rain = 0
KAI1 131919Z 20014KT 11/M02 A3027 RMK A01 T01091016  RH  042%=      5-min Rain = 0
KAI1 131920Z 22011KT 11/M02 A3028 RMK A01 T01091018  RH  041%=      5-min Rain = 0
KAI1 131921Z 22008KT 11/M02 A3027 RMK A01 T01081019  RH  041%=      5-min Rain = 0
KAI1 131922Z 21009KT 11/M02 A3027 RMK A01 T01081018  RH  042%=      5-min Rain = 0
KAI1 131923Z 20007KT 11/M02 A3027 RMK A01 T01121015  RH  041%=      5-min Rain = 0
KAI1 131924Z 20008KT 11/M02 A3027 RMK A01 T01101017  RH  041%=      5-min Rain = 0
KAI1 131925Z 21009KT 11/M02 A3027 RMK A01 T01101016  RH  042%=      5-min Rain = 0
KAI1 131926Z 19010KT 11/M02 A3027 RMK A01 T01101015  RH  042%=      5-min Rain = 0
KAI1 131927Z 19011KT 11/M01 A3027 RMK A01 T01121013  RH  042%=      5-min Rain = 0
KAI1 131928Z 20010KT 11/M01 A3027 RMK A01 T01141014  RH  041%=      5-min Rain = 0
KAI1 131929Z 20009KT 11/M02 A3027 RMK A01 T01121015  RH  041%=      5-min Rain = 0
KAI1 131930Z 18009KT 11/M01 A3027 RMK A01 T01141013  RH  041%=      5-min Rain = 0
KAI1 131931Z 19010KT 12/M01 A3027 RMK A01 T01151014  RH  041%=      5-min Rain = 0
KAI1 131932Z 18010KT 12/M01 A3027 RMK A01 T01151014  RH  041%=      5-min Rain = 0
KAI1 131933Z 18010KT 11/M01 A3027 RMK A01 T01141014  RH  041%=      5-min Rain = 0
KAI1 131934Z 18012KT 12/M01 A3027 RMK A01 T01171011  RH  041%=      5-min Rain = 0
KAI1 131935Z 21011KT 12/M01 A3027 RMK A01 T01221011  RH  040%=      5-min Rain = 0
KAI1 131936Z 22007KT 12/M01 A3027 RMK A01 T01211014  RH  039%=      5-min Rain = 0
KAI1 131937Z 20008KT 12/M02 A3027 RMK A01 T01191015  RH  039%=      5-min Rain = 0
KAI1 131938Z 19009KT 12/M01 A3027 RMK A01 T01171013  RH  040%=      5-min Rain = 0
KAI1 131939Z 22010KT 12/M01 A3027 RMK A01 T01181012  RH  040%=      5-min Rain = 0
KAI1 131940Z 22009KT 12/M01 A3027 RMK A01 T01191014  RH  040%=      5-min Rain = 0
KAI1 131941Z 20009KT 12/M01 A3027 RMK A01 T01201011  RH  040%=      5-min Rain = 0
KAI1 131942Z 18008KT 12/M01 A3027 RMK A01 T01221010  RH  040%=      5-min Rain = 0
KAI1 131943Z 21009G15KT 12/M01 A3027 RMK A01 T01221010  RH  040%=      5-min Rain = 0
KAI1 131944Z 21010KT 12/M01 A3027 RMK A01 T01231010  RH  040%=      5-min Rain = 0
KAI1 131945Z 20010KT 12/M01 A3027 RMK A01 T01231009  RH  040%=      5-min Rain = 0
KAI1 131946Z 19008KT 12/M01 A3027 RMK A01 T01241007  RH  040%=      5-min Rain = 0
KAI1 131947Z 21011KT 12/M01 A3027 RMK A01 T01241007  RH  040%=      5-min Rain = 0
KAI1 131948Z 22012KT 13/M01 A3026 RMK A01 T01261010  RH  039%=      5-min Rain = 0
KAI1 131949Z 21009KT 12/M01 A3026 RMK A01 T01231011  RH  039%=      5-min Rain = 0
KAI1 131950Z 21009KT 12/M01 A3026 RMK A01 T01231007  RH  041%=      5-min Rain = 0
KAI1 131951Z 19011KT 13/M00 A3026 RMK A01 T01281004  RH  040%=      5-min Rain = 0
KAI1 131952Z 18012KT 13/M01 A3026 RMK A01 T01291006  RH  039%=      5-min Rain = 0
KAI1 131953Z 18010KT 13/M01 A3026 RMK A01 T01271007  RH  040%=      5-min Rain = 0
KAI1 131954Z 16009KT 13/M01 A3026 RMK A01 T01261005  RH  040%=      5-min Rain = 0
KAI1 131955Z 17010KT 13/M00 A3026 RMK A01 T01261004  RH  041%=      5-min Rain = 0
KAI1 131956Z 20008KT 13/M00 A3026 RMK A01 T01271004  RH  040%=      5-min Rain = 0
KAI1 131957Z 23009KT 13/M00 A3026 RMK A01 T01281004  RH  040%=      5-min Rain = 0
KAI1 131958Z 22012KT 13/M00 A3026 RMK A01 T01281003  RH  040%=      5-min Rain = 0
KAI1 131959Z 21011KT 13/M00 A3026 RMK A01 T01301001  RH  041%=      5-min Rain = 0
KAI1 132000Z 21009KT 13/M00 A3026 RMK A01 T01311001  RH  040%=      5-min Rain = 0
KAI1 132001Z 20012KT 13/00 A3026 RMK A01 T013100-0  RH  041%=      5-min Rain = 0
KAI1 132002Z 20011KT 13/00 A3026 RMK A01 T01300000  RH  041%=      5-min Rain = 0
KAI1 132003Z 20011KT 13/00 A3026 RMK A01 T01290002  RH  042%=      5-min Rain = 0
KAI1 132004Z 20010KT 13/00 A3026 RMK A01 T01290000  RH  041%=      5-min Rain = 0
KAI1 132005Z 21008KT 13/M00 A3026 RMK A01 T01271001  RH  041%=      5-min Rain = 0
KAI1 132006Z 21010KT 13/M00 A3026 RMK A01 T01271001  RH  041%=      5-min Rain = 0
KAI1 132007Z 22009KT 13/00 A3026 RMK A01 T01280000  RH  042%=      5-min Rain = 0
KAI1 132008Z 21007KT 13/00 A3025 RMK A01 T01290001  RH  041%=      5-min Rain = 0
KAI1 132009Z 21008G13KT 13/00 A3025 RMK A01 T01290003  RH  042%=      5-min Rain = 0
KAI1 132010Z 22011KT 13/00 A3025 RMK A01 T01330004  RH  041%=      5-min Rain = 0
KAI1 132011Z 21012KT 14/00 A3025 RMK A01 T01360004  RH  040%=      5-min Rain = 0
KAI1 132012Z 19011KT 14/00 A3026 RMK A01 T01350004  RH  041%=      5-min Rain = 0
KAI1 132013Z 20008KT 13/00 A3026 RMK A01 T01340004  RH  041%=      5-min Rain = 0
KAI1 132014Z 21006KT 13/00 A3026 RMK A01 T01310003  RH  042%=      5-min Rain = 0
KAI1 132015Z 20008G14KT 13/00 A3025 RMK A01 T01300004  RH  042%=      5-min Rain = 0
KAI1 132016Z 18010KT 13/01 A3025 RMK A01 T01310006  RH  042%=      5-min Rain = 0
KAI1 132017Z 17008KT 13/01 A3025 RMK A01 T01320008  RH  042%=      5-min Rain = 0
KAI1 132018Z 20009KT 14/01 A3025 RMK A01 T01350009  RH  042%=      5-min Rain = 0
KAI1 132019Z 21011KT 14/01 A3025 RMK A01 T01360007  RH  042%=      5-min Rain = 0
KAI1 132020Z 22008KT 13/00 A3025 RMK A01 T01330004  RH  041%=      5-min Rain = 0
KAI1 132021Z 22009G14KT 13/01 A3025 RMK A01 T01330005  RH  042%=      5-min Rain = 0
KAI1 132022Z 21012KT 14/01 A3025 RMK A01 T01390007  RH  041%=      5-min Rain = 0
KAI1 132023Z 21012KT 14/01 A3025 RMK A01 T01410007  RH  040%=      5-min Rain = 0
KAI1 132024Z 22009KT 14/01 A3025 RMK A01 T01390005  RH  040%=      5-min Rain = 0
KAI1 132025Z 21008KT 14/01 A3025 RMK A01 T01360006  RH  041%=      5-min Rain = 0
KAI1 132026Z 21009KT 14/01 A3025 RMK A01 T01370008  RH  041%=      5-min Rain = 0
KAI1 132027Z 21008KT 14/01 A3025 RMK A01 T01370008  RH  041%=      5-min Rain = 0
KAI1 132028Z 20008KT 14/01 A3025 RMK A01 T01390010  RH  041%=      5-min Rain = 0
KAI1 132029Z 21007G12KT 14/01 A3025 RMK A01 T01390011  RH  042%=      5-min Rain = 0
KAI1 132030Z 19011KT 14/01 A3025 RMK A01 T01410011  RH  041%=      5-min Rain = 0
KAI1 132031Z 20013KT 14/01 A3024 RMK A01 T01400010  RH  041%=      5-min Rain = 0
KAI1 132032Z 21012KT 14/01 A3024 RMK A01 T01390009  RH  041%=      5-min Rain = 0
KAI1 132033Z 21011KT 14/01 A3025 RMK A01 T01390010  RH  041%=      5-min Rain = 0
KAI1 132034Z 19012KT 14/01 A3025 RMK A01 T01400010  RH  041%=      5-min Rain = 0
KAI1 132035Z 19012KT 14/01 A3025 RMK A01 T01400011  RH  041%=      5-min Rain = 0
KAI1 132036Z 20009KT 14/01 A3025 RMK A01 T01400011  RH  042%=      5-min Rain = 0
KAI1 132037Z 19010KT 14/01 A3025 RMK A01 T01410012  RH  041%=      5-min Rain = 0
KAI1 132038Z 19011KT 14/01 A3024 RMK A01 T01420012  RH  041%=      5-min Rain = 0
KAI1 132039Z 19014KT 14/01 A3024 RMK A01 T01420012  RH  041%=      5-min Rain = 0
KAI1 132040Z 20012KT 14/01 A3024 RMK A01 T01420012  RH  041%=      5-min Rain = 0
KAI1 132041Z 21010KT 14/01 A3024 RMK A01 T01410010  RH  041%=      5-min Rain = 0
KAI1 132042Z 21008KT 14/01 A3024 RMK A01 T01370008  RH  041%=      5-min Rain = 0
KAI1 132043Z 20012KT 14/01 A3024 RMK A01 T01360011  RH  042%=      5-min Rain = 0
KAI1 132044Z 21011KT 14/01 A3024 RMK A01 T01410013  RH  042%=      5-min Rain = 0
KAI1 132045Z 20009KT 14/01 A3024 RMK A01 T01420011  RH  041%=      5-min Rain = 0
KAI1 132046Z 20012KT 14/01 A3024 RMK A01 T01410011  RH  041%=      5-min Rain = 0
KAI1 132047Z 21009KT 14/01 A3024 RMK A01 T01390010  RH  041%=      5-min Rain = 0
KAI1 132048Z 20009G14KT 14/01 A3024 RMK A01 T01370010  RH  042%=      5-min Rain = 0
KAI1 132049Z 20011KT 14/01 A3024 RMK A01 T01380012  RH  042%=      5-min Rain = 0
KAI1 132050Z 19011KT 14/01 A3024 RMK A01 T01410012  RH  042%=      5-min Rain = 0
KAI1 132051Z 19007KT 14/01 A3024 RMK A01 T01410012  RH  042%=      5-min Rain = 0
KAI1 132052Z 18011KT 14/01 A3024 RMK A01 T01400014  RH  042%=      5-min Rain = 0
KAI1 132053Z 20012KT 14/01 A3024 RMK A01 T01440014  RH  041%=      5-min Rain = 0
KAI1 132054Z 20011KT 15/01 A3024 RMK A01 T01470013  RH  040%=      5-min Rain = 0
KAI1 132055Z 20010KT 15/01 A3024 RMK A01 T01500013  RH  039%=      5-min Rain = 0
KAI1 132056Z 21011KT 15/01 A3024 RMK A01 T01490012  RH  039%=      5-min Rain = 0
KAI1 132057Z 20012KT 15/01 A3024 RMK A01 T01450009  RH  039%=      5-min Rain = 0
KAI1 132058Z 21012KT 14/01 A3024 RMK A01 T01410010  RH  041%=      5-min Rain = 0
KAI1 132059Z 19012KT 14/01 A3024 RMK A01 T01410012  RH  042%=      5-min Rain = 0
KAI1 132100Z 20014KT 14/01 A3024 RMK A01 T01410013  RH  042%=      5-min Rain = 0
KAI1 132101Z 19011KT 14/02 A3024 RMK A01 T01440015  RH  041%=      5-min Rain = 0
KAI1 132102Z 20011KT 14/01 A3024 RMK A01 T01430014  RH  041%=      5-min Rain = 0
KAI1 132103Z 19010KT 14/01 A3024 RMK A01 T01410013  RH  042%=      5-min Rain = 0
KAI1 132104Z 19013KT 14/01 A3024 RMK A01 T01400014  RH  042%=      5-min Rain = 0
KAI1 132105Z 20013KT 14/01 A3024 RMK A01 T01410013  RH  042%=      5-min Rain = 0
KAI1 132106Z 19010KT 14/01 A3024 RMK A01 T01390012  RH  042%=      5-min Rain = 0
KAI1 132107Z 18010KT 14/01 A3024 RMK A01 T01390013  RH  042%=      5-min Rain = 0
KAI1 132108Z 19011KT 14/01 A3024 RMK A01 T01390013  RH  042%=      5-min Rain = 0
KAI1 132109Z 20012KT 14/01 A3024 RMK A01 T01400013  RH  042%=      5-min Rain = 0
KAI1 132110Z 20010KT 14/01 A3024 RMK A01 T01400012  RH  042%=      5-min Rain = 0
KAI1 132111Z 19010KT 14/01 A3024 RMK A01 T01400013  RH  042%=      5-min Rain = 0
KAI1 132112Z 18010KT 14/01 A3024 RMK A01 T01420014  RH  042%=      5-min Rain = 0
KAI1 132113Z 19012KT 14/01 A3024 RMK A01 T01420014  RH  042%=      5-min Rain = 0
KAI1 132114Z 20012KT 14/01 A3024 RMK A01 T01410014  RH  042%=      5-min Rain = 0
KAI1 132115Z 20012KT 14/01 A3024 RMK A01 T01430014  RH  041%=      5-min Rain = 0
KAI1 132116Z 19011KT 14/01 A3024 RMK A01 T01440014  RH  041%=      5-min Rain = 0
KAI1 132117Z 20010KT 14/01 A3024 RMK A01 T01440014  RH  041%=      5-min Rain = 0
KAI1 132118Z 19009KT 14/02 A3024 RMK A01 T01440015  RH  041%=      5-min Rain = 0
KAI1 132119Z 19012KT 14/01 A3024 RMK A01 T01440014  RH  041%=      5-min Rain = 0
KAI1 132120Z 18011KT 14/02 A3024 RMK A01 T01440015  RH  041%=      5-min Rain = 0
KAI1 132121Z 18009KT 15/02 A3024 RMK A01 T01450015  RH  041%=      5-min Rain = 0
KAI1 132122Z 19012KT 15/02 A3024 RMK A01 T01450016  RH  041%=      5-min Rain = 0
KAI1 132123Z 19008KT 14/01 A3024 RMK A01 T01430014  RH  041%=      5-min Rain = 0
KAI1 132124Z 20010KT 14/01 A3024 RMK A01 T01410014  RH  042%=      5-min Rain = 0
KAI1 132125Z 19011KT 14/02 A3024 RMK A01 T01420015  RH  042%=      5-min Rain = 0
KAI1 132126Z 20010KT 14/02 A3024 RMK A01 T01430015  RH  042%=      5-min Rain = 0
KAI1 132127Z 18011KT 14/02 A3024 RMK A01 T01410015  RH  042%=      5-min Rain = 0
KAI1 132128Z 18010KT 14/02 A3024 RMK A01 T01400016  RH  043%=      5-min Rain = 0
KAI1 132129Z 18010KT 14/02 A3024 RMK A01 T01410017  RH  043%=      5-min Rain = 0
KAI1 132130Z 17009KT 14/02 A3024 RMK A01 T01410018  RH  043%=      5-min Rain = 0
KAI1 132131Z 20010KT 14/02 A3024 RMK A01 T01440019  RH  043%=      5-min Rain = 0
KAI1 132132Z 20011KT 15/02 A3024 RMK A01 T01460017  RH  042%=      5-min Rain = 0
KAI1 132133Z 19012KT 14/02 A3024 RMK A01 T01440017  RH  042%=      5-min Rain = 0
KAI1 132134Z 18012KT 14/02 A3024 RMK A01 T01430017  RH  042%=      5-min Rain = 0
KAI1 132135Z 19012KT 14/02 A3024 RMK A01 T01440017  RH  042%=      5-min Rain = 0
KAI1 132136Z 19011KT 15/02 A3024 RMK A01 T01450017  RH  042%=      5-min Rain = 0
KAI1 132137Z 19009KT 14/02 A3024 RMK A01 T01440017  RH  042%=      5-min Rain = 0
KAI1 132138Z 18011KT 15/02 A3024 RMK A01 T01480020  RH  042%=      5-min Rain = 0
KAI1 132139Z 18011KT 15/02 A3024 RMK A01 T01500019  RH  041%=      5-min Rain = 0
KAI1 132140Z 17013KT 15/02 A3024 RMK A01 T01500019  RH  041%=      5-min Rain = 0
KAI1 132141Z 17014KT 15/02 A3024 RMK A01 T01470016  RH  041%=      5-min Rain = 0
KAI1 132142Z 20011KT 15/02 A3024 RMK A01 T01460016  RH  041%=      5-min Rain = 0
KAI1 132143Z 19011KT 15/02 A3024 RMK A01 T01460016  RH  041%=      5-min Rain = 0
KAI1 132144Z 19014KT 15/02 A3024 RMK A01 T01460016  RH  041%=      5-min Rain = 0
KAI1 132145Z 19014KT 15/02 A3024 RMK A01 T01460016  RH  041%=      5-min Rain = 0
KAI1 132146Z 20012KT 14/02 A3024 RMK A01 T01440015  RH  042%=      5-min Rain = 0
KAI1 132147Z 19010KT 14/02 A3024 RMK A01 T01430016  RH  042%=      5-min Rain = 0
KAI1 132148Z 20013KT 15/02 A3024 RMK A01 T01450017  RH  042%=      5-min Rain = 0
KAI1 132149Z 20012KT 15/02 A3024 RMK A01 T01460016  RH  041%=      5-min Rain = 0
KAI1 132150Z 19013KT 15/02 A3024 RMK A01 T01450015  RH  041%=      5-min Rain = 0
KAI1 132151Z 18013KT 15/02 A3024 RMK A01 T01460015  RH  041%=      5-min Rain = 0
KAI1 132152Z 18012KT 15/02 A3024 RMK A01 T01450015  RH  041%=      5-min Rain = 0
KAI1 132153Z 20014KT 15/02 A3024 RMK A01 T01450015  RH  041%=      5-min Rain = 0
KAI1 132154Z 20013KT 15/02 A3024 RMK A01 T01460015  RH  041%=      5-min Rain = 0
KAI1 132155Z 19013KT 15/02 A3024 RMK A01 T01460015  RH  041%=      5-min Rain = 0
KAI1 132156Z 19013KT 15/02 A3024 RMK A01 T01460015  RH  041%=      5-min Rain = 0
KAI1 132157Z 20013KT 15/02 A3024 RMK A01 T01460015  RH  041%=      5-min Rain = 0
KAI1 132158Z 20016KT 15/02 A3024 RMK A01 T01460015  RH  041%=      5-min Rain = 0
KAI1 132159Z 19012KT 15/02 A3024 RMK A01 T01460015  RH  041%=      5-min Rain = 0
KAI1 132200Z 18012KT 14/01 A3024 RMK A01 T01440014  RH  041%=      5-min Rain = 0
KAI1 132201Z 18015KT 14/01 A3024 RMK A01 T01420014  RH  042%=      5-min Rain = 0
KAI1 132202Z 18013KT 14/01 A3024 RMK A01 T01430013  RH  041%=      5-min Rain = 0
KAI1 132203Z 18014KT 14/01 A3024 RMK A01 T01430014  RH  041%=      5-min Rain = 0
KAI1 132204Z 19013KT 14/01 A3024 RMK A01 T01440014  RH  041%=      5-min Rain = 0
KAI1 132205Z 19012KT 15/01 A3024 RMK A01 T01450014  RH  041%=      5-min Rain = 0
KAI1 132206Z 19012KT 15/01 A3024 RMK A01 T01450014  RH  041%=      5-min Rain = 0
KAI1 132207Z 19014KT 14/01 A3024 RMK A01 T01430014  RH  042%=      5-min Rain = 0
KAI1 132208Z 20013KT 14/01 A3024 RMK A01 T01430014  RH  041%=      5-min Rain = 0
KAI1 132209Z 20013KT 14/01 A3024 RMK A01 T01430013  RH  041%=      5-min Rain = 0
KAI1 132210Z 20014KT 14/01 A3024 RMK A01 T01430013  RH  041%=      5-min Rain = 0
KAI1 132211Z 20013KT 14/01 A3024 RMK A01 T01430013  RH  041%=      5-min Rain = 0
KAI1 132212Z 20014KT 14/01 A3024 RMK A01 T01430013  RH  041%=      5-min Rain = 0
KAI1 132213Z 20015KT 14/01 A3024 RMK A01 T01440013  RH  041%=      5-min Rain = 0
KAI1 132214Z 20012KT 14/01 A3024 RMK A01 T01440012  RH  041%=      5-min Rain = 0
KAI1 132215Z 21014KT 14/01 A3024 RMK A01 T01440013  RH  041%=      5-min Rain = 0
KAI1 132216Z 19015KT 14/01 A3024 RMK A01 T01430011  RH  041%=      5-min Rain = 0
KAI1 132217Z 18014KT 14/01 A3024 RMK A01 T01420012  RH  041%=      5-min Rain = 0
KAI1 132218Z 18013G18KT 14/01 A3024 RMK A01 T01430013  RH  041%=      5-min Rain = 0
KAI1 132219Z 18010KT 14/01 A3024 RMK A01 T01430014  RH  041%=      5-min Rain = 0
KAI1 132220Z 18013KT 14/01 A3024 RMK A01 T01430013  RH  041%=      5-min Rain = 0
KAI1 132221Z 20013KT 14/01 A3024 RMK A01 T01440013  RH  041%=      5-min Rain = 0
KAI1 132222Z 19012KT 15/01 A3024 RMK A01 T01450013  RH  041%=      5-min Rain = 0
KAI1 132223Z 18011KT 14/01 A3024 RMK A01 T01440013  RH  041%=      5-min Rain = 0
KAI1 132224Z 18014KT 15/01 A3024 RMK A01 T01450013  RH  041%=      5-min Rain = 0
KAI1 132225Z 18013KT 14/01 A3024 RMK A01 T01440012  RH  041%=      5-min Rain = 0
KAI1 132226Z 19012KT 14/01 A3024 RMK A01 T01430012  RH  041%=      5-min Rain = 0
KAI1 132227Z 19014KT 14/01 A3024 RMK A01 T01440012  RH  041%=      5-min Rain = 0
KAI1 132228Z 20015KT 14/01 A3024 RMK A01 T01440011  RH  040%=      5-min Rain = 0
KAI1 132229Z 19013KT 14/01 A3024 RMK A01 T01440011  RH  040%=      5-min Rain = 0
KAI1 132230Z 18012KT 14/01 A3024 RMK A01 T01440011  RH  040%=      5-min Rain = 0
KAI1 132231Z 18014KT 15/01 A3023 RMK A01 T01450011  RH  040%=      5-min Rain = 0
KAI1 132232Z 18014KT 15/01 A3023 RMK A01 T01460012  RH  040%=      5-min Rain = 0
KAI1 132233Z 18013KT 15/01 A3023 RMK A01 T01450012  RH  040%=      5-min Rain = 0
KAI1 132234Z 18013KT 15/01 A3023 RMK A01 T01460012  RH  040%=      5-min Rain = 0
KAI1 132235Z 19013KT 15/01 A3023 RMK A01 T01470011  RH  040%=      5-min Rain = 0
KAI1 132236Z 19014KT 15/01 A3023 RMK A01 T01480011  RH  039%=      5-min Rain = 0
KAI1 132237Z 19015KT 15/01 A3023 RMK A01 T01470010  RH  039%=      5-min Rain = 0
KAI1 132238Z 19012KT 15/01 A3023 RMK A01 T01460010  RH  040%=      5-min Rain = 0
KAI1 132239Z 19014KT 15/01 A3023 RMK A01 T01460011  RH  040%=      5-min Rain = 0
KAI1 132240Z 20012KT 15/01 A3023 RMK A01 T01460011  RH  040%=      5-min Rain = 0
KAI1 132241Z 19013KT 15/01 A3023 RMK A01 T01450011  RH  040%=      5-min Rain = 0
KAI1 132242Z 19013KT 15/01 A3023 RMK A01 T01450011  RH  040%=      5-min Rain = 0
KAI1 132243Z 19013KT 15/01 A3023 RMK A01 T01450011  RH  040%=      5-min Rain = 0
KAI1 132244Z 19015KT 15/01 A3023 RMK A01 T01450011  RH  040%=      5-min Rain = 0
KAI1 132245Z 18014KT 14/01 A3023 RMK A01 T01440010  RH  040%=      5-min Rain = 0
KAI1 132246Z 19013KT 14/01 A3023 RMK A01 T01440011  RH  040%=      5-min Rain = 0
KAI1 132247Z 19014KT 15/01 A3023 RMK A01 T01450011  RH  040%=      5-min Rain = 0
KAI1 132248Z 19014KT 15/01 A3023 RMK A01 T01450011  RH  040%=      5-min Rain = 0
KAI1 132249Z 19014KT 15/01 A3023 RMK A01 T01450011  RH  040%=      5-min Rain = 0
KAI1 132250Z 19014KT 14/01 A3023 RMK A01 T01440011  RH  040%=      5-min Rain = 0
KAI1 132251Z 18013KT 15/01 A3024 RMK A01 T01450012  RH  040%=      5-min Rain = 0
KAI1 132252Z 20012KT 15/01 A3024 RMK A01 T01460012  RH  040%=      5-min Rain = 0
KAI1 132253Z 20013KT 15/01 A3024 RMK A01 T01460012  RH  040%=      5-min Rain = 0
KAI1 132254Z 20014KT 15/01 A3024 RMK A01 T01450012  RH  040%=      5-min Rain = 0
KAI1 132255Z 20014KT 14/01 A3024 RMK A01 T01440012  RH  041%=      5-min Rain = 0
KAI1 132256Z 18012KT 14/01 A3024 RMK A01 T01430012  RH  041%=      5-min Rain = 0
KAI1 132257Z 19014KT 14/01 A3024 RMK A01 T01420012  RH  041%=      5-min Rain = 0
KAI1 132258Z 18013KT 14/01 A3024 RMK A01 T01420011  RH  041%=      5-min Rain = 0
KAI1 132259Z 19013KT 14/01 A3024 RMK A01 T01420012  RH  041%=      5-min Rain = 0
KAI1 132300Z 19013KT 14/01 A3024 RMK A01 T01420011  RH  041%=      5-min Rain = 0
KAI1 132301Z 19013KT 14/01 A3024 RMK A01 T01420011  RH  041%=      5-min Rain = 0
KAI1 132302Z 19013KT 14/01 A3024 RMK A01 T01430012  RH  041%=      5-min Rain = 0
KAI1 132303Z 19013KT 14/01 A3024 RMK A01 T01430012  RH  041%=      5-min Rain = 0
KAI1 132304Z 19012KT 14/01 A3023 RMK A01 T01430012  RH  041%=      5-min Rain = 0
KAI1 132305Z 19013KT 14/01 A3023 RMK A01 T01430012  RH  041%=      5-min Rain = 0
KAI1 132306Z 18013KT 14/01 A3023 RMK A01 T01420012  RH  041%=      5-min Rain = 0
KAI1 132307Z 19013KT 14/01 A3023 RMK A01 T01420012  RH  041%=      5-min Rain = 0
KAI1 132308Z 19012KT 14/01 A3024 RMK A01 T01410011  RH  041%=      5-min Rain = 0
KAI1 132309Z 19012KT 14/01 A3024 RMK A01 T01410011  RH  041%=      5-min Rain = 0
KAI1 132310Z 19013KT 14/01 A3024 RMK A01 T01410011  RH  041%=      5-min Rain = 0
KAI1 132311Z 19013KT 14/01 A3024 RMK A01 T01400011  RH  041%=      5-min Rain = 0
KAI1 132312Z 19011KT 14/01 A3024 RMK A01 T01400012  RH  042%=      5-min Rain = 0
KAI1 132313Z 19011KT 14/01 A3024 RMK A01 T01400012  RH  042%=      5-min Rain = 0
KAI1 132314Z 18015KT 14/01 A3024 RMK A01 T01400011  RH  041%=      5-min Rain = 0
KAI1 132315Z 18014KT 14/01 A3024 RMK A01 T01390011  RH  042%=      5-min Rain = 0
KAI1 132316Z 18012KT 14/01 A3024 RMK A01 T01380010  RH  042%=      5-min Rain = 0
KAI1 132317Z 19012KT 14/01 A3024 RMK A01 T01370010  RH  042%=      5-min Rain = 0
KAI1 132318Z 20011KT 14/01 A3024 RMK A01 T01370010  RH  042%=      5-min Rain = 0
KAI1 132319Z 20011KT 14/01 A3024 RMK A01 T01370011  RH  042%=      5-min Rain = 0
KAI1 132320Z 19009KT 14/01 A3024 RMK A01 T01370011  RH  042%=      5-min Rain = 0
KAI1 132321Z 19011KT 14/01 A3024 RMK A01 T01370011  RH  042%=      5-min Rain = 0
KAI1 132322Z 18014KT 14/01 A3024 RMK A01 T01370011  RH  042%=      5-min Rain = 0
KAI1 132323Z 19011KT 14/01 A3024 RMK A01 T01380012  RH  042%=      5-min Rain = 0
KAI1 132324Z 19011KT 14/01 A3024 RMK A01 T01370012  RH  042%=      5-min Rain = 0
KAI1 132325Z 19012KT 14/01 A3024 RMK A01 T01370011  RH  042%=      5-min Rain = 0
KAI1 132326Z 19012KT 14/01 A3024 RMK A01 T01370012  RH  042%=      5-min Rain = 0
KAI1 132327Z 19012KT 14/01 A3024 RMK A01 T01370012  RH  043%=      5-min Rain = 0
KAI1 132328Z 19012KT 14/01 A3024 RMK A01 T01370012  RH  043%=      5-min Rain = 0
KAI1 132329Z 18010KT 14/01 A3024 RMK A01 T01360012  RH  043%=      5-min Rain = 0
KAI1 132330Z 19009KT 14/01 A3024 RMK A01 T01370013  RH  043%=      5-min Rain = 0
KAI1 132331Z 19011KT 14/01 A3024 RMK A01 T01360013  RH  043%=      5-min Rain = 0
KAI1 132332Z 19012KT 14/01 A3024 RMK A01 T01360013  RH  043%=      5-min Rain = 0
KAI1 132333Z 19013KT 14/01 A3024 RMK A01 T01360012  RH  043%=      5-min Rain = 0
KAI1 132334Z 19011KT 14/01 A3024 RMK A01 T01350013  RH  043%=      5-min Rain = 0
KAI1 132335Z 19011KT 14/01 A3024 RMK A01 T01350013  RH  043%=      5-min Rain = 0
KAI1 132336Z 20010KT 14/01 A3024 RMK A01 T01350013  RH  043%=      5-min Rain = 0
KAI1 132337Z 19011KT 13/01 A3024 RMK A01 T01340013  RH  044%=      5-min Rain = 0
KAI1 132338Z 19009KT 13/01 A3024 RMK A01 T01330013  RH  044%=      5-min Rain = 0
KAI1 132339Z 18009KT 13/01 A3024 RMK A01 T01330013  RH  044%=      5-min Rain = 0
KAI1 132340Z 19010KT 13/01 A3024 RMK A01 T01320013  RH  044%=      5-min Rain = 0
KAI1 132341Z 18010KT 13/01 A3024 RMK A01 T01320013  RH  044%=      5-min Rain = 0
KAI1 132342Z 18011KT 13/01 A3024 RMK A01 T01320013  RH  044%=      5-min Rain = 0
KAI1 132343Z 18011KT 13/01 A3024 RMK A01 T01310013  RH  044%=      5-min Rain = 0
KAI1 132344Z 18011KT 13/01 A3024 RMK A01 T01310012  RH  044%=      5-min Rain = 0
KAI1 132345Z 18010KT 13/01 A3024 RMK A01 T01300012  RH  044%=      5-min Rain = 0
KAI1 132346Z 18011KT 13/01 A3024 RMK A01 T01300011  RH  044%=      5-min Rain = 0
KAI1 132347Z 18012KT 13/01 A3024 RMK A01 T01290011  RH  045%=      5-min Rain = 0
KAI1 132348Z 18011KT 13/01 A3024 RMK A01 T01290012  RH  045%=      5-min Rain = 0
KAI1 132349Z 18010KT 13/01 A3024 RMK A01 T01290012  RH  045%=      5-min Rain = 0
KAI1 132350Z 18010KT 13/01 A3024 RMK A01 T01280011  RH  045%=      5-min Rain = 0
KAI1 132351Z 18011KT 13/01 A3024 RMK A01 T01280011  RH  045%=      5-min Rain = 0
KAI1 132352Z 17010KT 13/01 A3024 RMK A01 T01280011  RH  045%=      5-min Rain = 0
KAI1 132353Z 17009KT 13/01 A3024 RMK A01 T01270010  RH  045%=      5-min Rain = 0
KAI1 132354Z 18010KT 13/01 A3024 RMK A01 T01260010  RH  045%=      5-min Rain = 0
KAI1 132355Z 18010KT 13/01 A3024 RMK A01 T01260010  RH  045%=      5-min Rain = 0
KAI1 132356Z 17010KT 13/01 A3024 RMK A01 T01260010  RH  045%=      5-min Rain = 0
KAI1 132357Z 18010KT 13/01 A3024 RMK A01 T01250010  RH  045%=      5-min Rain = 0
KAI1 132358Z 18010KT 13/01 A3024 RMK A01 T01250010  RH  045%=      5-min Rain = 0
KAI1 132359Z 17010KT 13/01 A3024 RMK A01 T01250010  RH  045%=      5-min Rain = 0
KAI1 140000Z 17009KT 13/01 A3024 RMK A01 T01250010  RH  045%=      5-min Rain = 0
KAI1 140001Z 17009KT 12/01 A3024 RMK A01 T01240009  RH  045%=      5-min Rain = 0
KAI1 140002Z 17009KT 12/01 A3024 RMK A01 T01230009  RH  045%=      5-min Rain = 0
KAI1 140003Z 17009KT 12/01 A3024 RMK A01 T01230009  RH  046%=      5-min Rain = 0
KAI1 140004Z 18009KT 12/01 A3024 RMK A01 T01220009  RH  046%=      5-min Rain = 0
KAI1 140005Z 18009KT 12/01 A3024 RMK A01 T01220009  RH  046%=      5-min Rain = 0
KAI1 140006Z 18009KT 12/01 A3024 RMK A01 T01210009  RH  046%=      5-min Rain = 0
KAI1 140007Z 18008KT 12/01 A3024 RMK A01 T01200009  RH  046%=      5-min Rain = 0
KAI1 140008Z 18010KT 12/01 A3024 RMK A01 T01190009  RH  047%=      5-min Rain = 0
KAI1 140009Z 18009KT 12/01 A3024 RMK A01 T01190010  RH  047%=      5-min Rain = 0
KAI1 140010Z 18009KT 12/01 A3024 RMK A01 T01190009  RH  047%=      5-min Rain = 0
KAI1 140011Z 17009KT 12/01 A3024 RMK A01 T01190009  RH  047%=      5-min Rain = 0
KAI1 140012Z 18008KT 12/01 A3024 RMK A01 T01180008  RH  047%=      5-min Rain = 0
KAI1 140013Z 18008KT 12/01 A3024 RMK A01 T01170008  RH  047%=      5-min Rain = 0
KAI1 140014Z 18008KT 12/01 A3024 RMK A01 T01170008  RH  047%=      5-min Rain = 0
KAI1 140015Z 18008KT 12/01 A3024 RMK A01 T01160008  RH  047%=      5-min Rain = 0
KAI1 140016Z 18008KT 12/01 A3024 RMK A01 T01150008  RH  048%=      5-min Rain = 0
KAI1 140017Z 18008KT 11/01 A3024 RMK A01 T01140008  RH  048%=      5-min Rain = 0
KAI1 140018Z 18008KT 11/01 A3024 RMK A01 T01140007  RH  048%=      5-min Rain = 0
KAI1 140019Z 18008KT 11/01 A3024 RMK A01 T01130007  RH  048%=      5-min Rain = 0
KAI1 140020Z 18008KT 11/01 A3024 RMK A01 T01120007  RH  048%=      5-min Rain = 0
KAI1 140021Z 18008KT 11/01 A3024 RMK A01 T01110007  RH  049%=      5-min Rain = 0
KAI1 140022Z 18008KT 11/01 A3024 RMK A01 T01110007  RH  049%=      5-min Rain = 0
KAI1 140023Z 18008KT 11/01 A3024 RMK A01 T01100007  RH  049%=      5-min Rain = 0
KAI1 140024Z 18008KT 11/01 A3024 RMK A01 T01100006  RH  049%=      5-min Rain = 0
KAI1 140025Z 18008KT 11/01 A3024 RMK A01 T01090006  RH  049%=      5-min Rain = 0
KAI1 140026Z 18008KT 11/01 A3024 RMK A01 T01080006  RH  049%=      5-min Rain = 0
KAI1 140027Z 18008KT 11/01 A3024 RMK A01 T01070005  RH  049%=      5-min Rain = 0
KAI1 140028Z 18008KT 11/01 A3024 RMK A01 T01060005  RH  049%=      5-min Rain = 0
KAI1 140029Z 18008KT 11/00 A3024 RMK A01 T01050004  RH  050%=      5-min Rain = 0
KAI1 140030Z 18008KT 10/00 A3024 RMK A01 T01040004  RH  050%=      5-min Rain = 0
KAI1 140031Z 18008KT 10/00 A3024 RMK A01 T01030004  RH  050%=      5-min Rain = 0
KAI1 140032Z 18008KT 10/00 A3024 RMK A01 T01020003  RH  050%=      5-min Rain = 0
KAI1 140033Z 18008KT 10/00 A3024 RMK A01 T01010003  RH  050%=      5-min Rain = 0
KAI1 140034Z 18008KT 10/00 A3024 RMK A01 T01000003  RH  051%=      5-min Rain = 0
KAI1 140035Z 18008KT 10/00 A3024 RMK A01 T01000003  RH  051%=      5-min Rain = 0
KAI1 140036Z 18007KT 10/00 A3024 RMK A01 T01000003  RH  051%=      5-min Rain = 0
KAI1 140037Z 18007KT 10/00 A3024 RMK A01 T00990003  RH  051%=      5-min Rain = 0
KAI1 140038Z 18008KT 10/00 A3024 RMK A01 T00990003  RH  051%=      5-min Rain = 0
KAI1 140039Z 18008KT 10/00 A3024 RMK A01 T00990002  RH  051%=      5-min Rain = 0
KAI1 140040Z 18007KT 10/00 A3024 RMK A01 T00980002  RH  051%=      5-min Rain = 0
KAI1 140041Z 18007KT 10/00 A3024 RMK A01 T00970002  RH  051%=      5-min Rain = 0
KAI1 140042Z 18007KT 10/00 A3024 RMK A01 T00960001  RH  052%=      5-min Rain = 0
KAI1 140043Z 18007KT 10/00 A3024 RMK A01 T00960002  RH  052%=      5-min Rain = 0
KAI1 140044Z 18007KT 10/00 A3024 RMK A01 T00950001  RH  052%=      5-min Rain = 0
KAI1 140045Z 18007KT 09/00 A3024 RMK A01 T00940000  RH  052%=      5-min Rain = 0
KAI1 140046Z 17007KT 09/M00 A3024 RMK A01 T00931001  RH  052%=      5-min Rain = 0
KAI1 140047Z 17007KT 09/M00 A3024 RMK A01 T00921002  RH  052%=      5-min Rain = 0
KAI1 140048Z 17007KT 09/M00 A3024 RMK A01 T00921003  RH  052%=      5-min Rain = 0
KAI1 140049Z 17007KT 09/M01 A3024 RMK A01 T00901005  RH  051%=      5-min Rain = 0
KAI1 140050Z 17007KT 09/M01 A3024 RMK A01 T00891006  RH  051%=      5-min Rain = 0
KAI1 140051Z 17006KT 09/M01 A3024 RMK A01 T00881008  RH  051%=      5-min Rain = 0
KAI1 140052Z 17006KT 09/M01 A3024 RMK A01 T00871008  RH  052%=      5-min Rain = 0
KAI1 140053Z 17006KT 09/M01 A3024 RMK A01 T00851008  RH  052%=      5-min Rain = 0
KAI1 140054Z 17006KT 09/M01 A3024 RMK A01 T00851007  RH  052%=      5-min Rain = 0
KAI1 140055Z 17006KT 08/M01 A3024 RMK A01 T00841006  RH  053%=      5-min Rain = 0
KAI1 140056Z 17006KT 08/M01 A3024 RMK A01 T00841007  RH  053%=      5-min Rain = 0
KAI1 140057Z 16007KT 08/M01 A3024 RMK A01 T00831008  RH  053%=      5-min Rain = 0
KAI1 140058Z 17007KT 08/M01 A3024 RMK A01 T00821008  RH  053%=      5-min Rain = 0
KAI1 140059Z 17007KT 08/M01 A3024 RMK A01 T00821007  RH  053%=      5-min Rain = 0
KAI1 140100Z 17007KT 08/M01 A3024 RMK A01 T00821008  RH  053%=      5-min Rain = 0
KAI1 140101Z 17007KT 08/M01 A3024 RMK A01 T00811010  RH  053%=      5-min Rain = 0
KAI1 140102Z 17007KT 08/M01 A3024 RMK A01 T00801009  RH  053%=      5-min Rain = 0
KAI1 140103Z 17007KT 08/M01 A3024 RMK A01 T00791009  RH  053%=      5-min Rain = 0
KAI1 140104Z 17007KT 08/M01 A3024 RMK A01 T00791010  RH  053%=      5-min Rain = 0
KAI1 140105Z 17007KT 08/M01 A3024 RMK A01 T00781012  RH  053%=      5-min Rain = 0
KAI1 140106Z 17007KT 08/M01 A3024 RMK A01 T00771012  RH  053%=      5-min Rain = 0
KAI1 140107Z 16008KT 08/M01 A3024 RMK A01 T00761013  RH  053%=      5-min Rain = 0
KAI1 140108Z 16008KT 08/M01 A3024 RMK A01 T00751014  RH  053%=      5-min Rain = 0
KAI1 140109Z 16008KT 07/M02 A3024 RMK A01 T00731016  RH  053%=      5-min Rain = 0
KAI1 140110Z 16008KT 07/M02 A3024 RMK A01 T00721016  RH  053%=      5-min Rain = 0
KAI1 140111Z 16008KT 07/M02 A3024 RMK A01 T00711017  RH  053%=      5-min Rain = 0
KAI1 140112Z 16008KT 07/M02 A3024 RMK A01 T00711017  RH  054%=      5-min Rain = 0
KAI1 140113Z 16008KT 07/M02 A3024 RMK A01 T00701016  RH  054%=      5-min Rain = 0
KAI1 140114Z 16009KT 07/M02 A3024 RMK A01 T00691015  RH  055%=      5-min Rain = 0
KAI1 140115Z 16009KT 07/M02 A3024 RMK A01 T00691015  RH  055%=      5-min Rain = 0
KAI1 140116Z 16009KT 07/M01 A3024 RMK A01 T00691014  RH  056%=      5-min Rain = 0
KAI1 140117Z 16009KT 07/M01 A3024 RMK A01 T00691013  RH  056%=      5-min Rain = 0
KAI1 140118Z 16009KT 07/M01 A3024 RMK A01 T00691013  RH  056%=      5-min Rain = 0
KAI1 140119Z 16009KT 07/M01 A3024 RMK A01 T00691012  RH  056%=      5-min Rain = 0
KAI1 140120Z 17009KT 07/M01 A3024 RMK A01 T00691012  RH  056%=      5-min Rain = 0
KAI1 140121Z 17009KT 07/M01 A3024 RMK A01 T00691012  RH  056%=      5-min Rain = 0
KAI1 140122Z 17009KT 07/M01 A3024 RMK A01 T00691012  RH  056%=      5-min Rain = 0
KAI1 140123Z 17009KT 07/M01 A3024 RMK A01 T00691012  RH  056%=      5-min Rain = 0
KAI1 140124Z 17010KT 07/M01 A3024 RMK A01 T00691012  RH  056%=      5-min Rain = 0
KAI1 140125Z 17010KT 07/M01 A3024 RMK A01 T00691013  RH  056%=      5-min Rain = 0
KAI1 140126Z 17010KT 07/M01 A3024 RMK A01 T00681013  RH  056%=      5-min Rain = 0
KAI1 140127Z 17010KT 07/M01 A3024 RMK A01 T00681013  RH  056%=      5-min Rain = 0
KAI1 140128Z 17010KT 07/M01 A3024 RMK A01 T00671014  RH  056%=      5-min Rain = 0
KAI1 140129Z 17010KT 07/M01 A3024 RMK A01 T00671014  RH  056%=      5-min Rain = 0
KAI1 140130Z 17010KT 07/M02 A3024 RMK A01 T00661015  RH  056%=      5-min Rain = 0
KAI1 140131Z 17010KT 07/M02 A3024 RMK A01 T00661015  RH  056%=      5-min Rain = 0
KAI1 140132Z 17009KT 07/M02 A3024 RMK A01 T00661015  RH  056%=      5-min Rain = 0
KAI1 140133Z 16009KT 07/M02 A3024 RMK A01 T00661015  RH  056%=      5-min Rain = 0
KAI1 140134Z 16009KT 07/M02 A3024 RMK A01 T00651015  RH  057%=      5-min Rain = 0
KAI1 140135Z 16009KT 07/M01 A3024 RMK A01 T00651014  RH  057%=      5-min Rain = 0
KAI1 140136Z 16009KT 07/M01 A3024 RMK A01 T00651014  RH  057%=      5-min Rain = 0
KAI1 140137Z 16008KT 06/M01 A3024 RMK A01 T00641014  RH  057%=      5-min Rain = 0
KAI1 140138Z 16008KT 06/M01 A3024 RMK A01 T00641014  RH  057%=      5-min Rain = 0
KAI1 140139Z 16008KT 06/M01 A3025 RMK A01 T00641014  RH  058%=      5-min Rain = 0
KAI1 140140Z 16008KT 06/M01 A3025 RMK A01 T00631014  RH  058%=      5-min Rain = 0
KAI1 140141Z 17008KT 06/M01 A3025 RMK A01 T00631014  RH  058%=      5-min Rain = 0
KAI1 140142Z 16008KT 06/M01 A3025 RMK A01 T00631014  RH  058%=      5-min Rain = 0
KAI1 140143Z 16008KT 06/M01 A3025 RMK A01 T00631013  RH  058%=      5-min Rain = 0
KAI1 140144Z 17008KT 06/M01 A3025 RMK A01 T00621014  RH  058%=      5-min Rain = 0
KAI1 140145Z 17009KT 06/M02 A3025 RMK A01 T00621015  RH  058%=      5-min Rain = 0
KAI1 140146Z 16009KT 06/M02 A3025 RMK A01 T00621016  RH  058%=      5-min Rain = 0
KAI1 140147Z 17009KT 06/M02 A3025 RMK A01 T00611017  RH  057%=      5-min Rain = 0
KAI1 140148Z 17009KT 06/M02 A3025 RMK A01 T00601018  RH  057%=      5-min Rain = 0
KAI1 140149Z 17009KT 06/M02 A3025 RMK A01 T00601018  RH  057%=      5-min Rain = 0
KAI1 140150Z 17009KT 06/M02 A3025 RMK A01 T00591018  RH  058%=      5-min Rain = 0
KAI1 140151Z 17010KT 06/M02 A3025 RMK A01 T00581018  RH  058%=      5-min Rain = 0
KAI1 140152Z 17010KT 06/M02 A3025 RMK A01 T00581017  RH  058%=      5-min Rain = 0
KAI1 140153Z 17010KT 06/M02 A3025 RMK A01 T00581017  RH  058%=      5-min Rain = 0
KAI1 140154Z 17010KT 06/M02 A3025 RMK A01 T00581017  RH  059%=      5-min Rain = 0
KAI1 140155Z 17010KT 06/M02 A3025 RMK A01 T00581017  RH  059%=      5-min Rain = 0
KAI1 140156Z 17010KT 06/M02 A3025 RMK A01 T00581017  RH  058%=      5-min Rain = 0
KAI1 140157Z 17010KT 06/M02 A3025 RMK A01 T00581017  RH  058%=      5-min Rain = 0
KAI1 140158Z 17010KT 06/M02 A3025 RMK A01 T00581017  RH  058%=      5-min Rain = 0
KAI1 140159Z 17010KT 06/M02 A3025 RMK A01 T00591017  RH  058%=      5-min Rain = 0
KAI1 140200Z 17010KT 06/M02 A3025 RMK A01 T00591016  RH  058%=      5-min Rain = 0
KAI1 140201Z 17010KT 06/M02 A3025 RMK A01 T00591017  RH  058%=      5-min Rain = 0
KAI1 140202Z 17010KT 06/M02 A3025 RMK A01 T00591016  RH  058%=      5-min Rain = 0
KAI1 140203Z 17010KT 06/M02 A3025 RMK A01 T00591016  RH  059%=      5-min Rain = 0
KAI1 140204Z 17010KT 06/M02 A3025 RMK A01 T00581016  RH  059%=      5-min Rain = 0
KAI1 140205Z 17010KT 06/M02 A3025 RMK A01 T00581015  RH  059%=      5-min Rain = 0
KAI1 140206Z 17009KT 06/M02 A3025 RMK A01 T00581015  RH  059%=      5-min Rain = 0
KAI1 140207Z 17009KT 06/M01 A3025 RMK A01 T00591014  RH  059%=      5-min Rain = 0
KAI1 140208Z 17009KT 06/M01 A3025 RMK A01 T00591014  RH  060%=      5-min Rain = 0
KAI1 140209Z 17009KT 06/M01 A3025 RMK A01 T00591013  RH  060%=      5-min Rain = 0
KAI1 140210Z 17008KT 06/M01 A3025 RMK A01 T00591012  RH  060%=      5-min Rain = 0
KAI1 140211Z 17009KT 06/M01 A3025 RMK A01 T00591011  RH  060%=      5-min Rain = 0
KAI1 140212Z 18008KT 06/M01 A3025 RMK A01 T00591012  RH  060%=      5-min Rain = 0
KAI1 140213Z 17008KT 06/M01 A3025 RMK A01 T00591012  RH  060%=      5-min Rain = 0
KAI1 140214Z 17008KT 06/M01 A3025 RMK A01 T00591012  RH  060%=      5-min Rain = 0
KAI1 140215Z 17008KT 06/M01 A3025 RMK A01 T00591012  RH  060%=      5-min Rain = 0
KAI1 140216Z 17009KT 06/M01 A3025 RMK A01 T00581013  RH  060%=      5-min Rain = 0
KAI1 140217Z 17009KT 06/M01 A3025 RMK A01 T00581013  RH  060%=      5-min Rain = 0
KAI1 140218Z 17009KT 06/M02 A3025 RMK A01 T00571015  RH  060%=      5-min Rain = 0
KAI1 140219Z 17009KT 06/M02 A3025 RMK A01 T00571015  RH  060%=      5-min Rain = 0
KAI1 140220Z 17009KT 06/M02 A3025 RMK A01 T00561015  RH  060%=      5-min Rain = 0
KAI1 140221Z 17009KT 06/M02 A3025 RMK A01 T00561015  RH  060%=      5-min Rain = 0
KAI1 140222Z 17009KT 06/M02 A3025 RMK A01 T00561015  RH  060%=      5-min Rain = 0
KAI1 140223Z 17010KT 06/M02 A3025 RMK A01 T00551015  RH  060%=      5-min Rain = 0
KAI1 140224Z 17009KT 06/M02 A3025 RMK A01 T00551015  RH  061%=      5-min Rain = 0
KAI1 140225Z 17010KT 06/M02 A3025 RMK A01 T00551015  RH  061%=      5-min Rain = 0
KAI1 140226Z 17009KT 06/M02 A3025 RMK A01 T00551015  RH  061%=      5-min Rain = 0
KAI1 140227Z 17009KT 06/M01 A3025 RMK A01 T00551014  RH  061%=      5-min Rain = 0
KAI1 140228Z 17009KT 05/M02 A3025 RMK A01 T00541015  RH  061%=      5-min Rain = 0
KAI1 140229Z 17010KT 05/M02 A3025 RMK A01 T00541015  RH  061%=      5-min Rain = 0
KAI1 140230Z 17010KT 05/M02 A3025 RMK A01 T00541015  RH  061%=      5-min Rain = 0
KAI1 140231Z 17010KT 05/M01 A3025 RMK A01 T00541014  RH  062%=      5-min Rain = 0
KAI1 140232Z 17010KT 05/M01 A3025 RMK A01 T00531014  RH  062%=      5-min Rain = 0
KAI1 140233Z 17010KT 05/M01 A3025 RMK A01 T00531014  RH  062%=      5-min Rain = 0
KAI1 140234Z 17010KT 05/M01 A3025 RMK A01 T00531014  RH  062%=      5-min Rain = 0
KAI1 140235Z 17010KT 05/M01 A3025 RMK A01 T00531014  RH  062%=      5-min Rain = 0
KAI1 140236Z 17010KT 05/M01 A3025 RMK A01 T00531013  RH  062%=      5-min Rain = 0
KAI1 140237Z 17010KT 05/M01 A3025 RMK A01 T00531013  RH  062%=      5-min Rain = 0
KAI1 140238Z 17010KT 05/M01 A3025 RMK A01 T00531013  RH  062%=      5-min Rain = 0
KAI1 140239Z 17010KT 05/M01 A3025 RMK A01 T00531013  RH  062%=      5-min Rain = 0
KAI1 140240Z 17010KT 05/M01 A3025 RMK A01 T00531013  RH  062%=      5-min Rain = 0
KAI1 140241Z 17010KT 05/M01 A3025 RMK A01 T00541012  RH  063%=      5-min Rain = 0
KAI1 140242Z 18010KT 05/M01 A3025 RMK A01 T00541011  RH  063%=      5-min Rain = 0
KAI1 140243Z 18010KT 05/M01 A3025 RMK A01 T00541011  RH  063%=      5-min Rain = 0
KAI1 140244Z 18011KT 05/M01 A3025 RMK A01 T00541011  RH  063%=      5-min Rain = 0
KAI1 140245Z 18010KT 05/M01 A3025 RMK A01 T00541009  RH  064%=      5-min Rain = 0
KAI1 140246Z 18011KT 06/M01 A3025 RMK A01 T00561007  RH  064%=      5-min Rain = 0
KAI1 140247Z 18011KT 06/M01 A3025 RMK A01 T00571006  RH  064%=      5-min Rain = 0
KAI1 140248Z 18011KT 06/M01 A3025 RMK A01 T00571006  RH  064%=      5-min Rain = 0
KAI1 140249Z 18012KT 06/M01 A3025 RMK A01 T00571006  RH  064%=      5-min Rain = 0
KAI1 140250Z 18012KT 06/M00 A3025 RMK A01 T00581004  RH  064%=      5-min Rain = 0
KAI1 140251Z 18011KT 06/M00 A3025 RMK A01 T00581003  RH  064%=      5-min Rain = 0
KAI1 140252Z 18011KT 06/M00 A3025 RMK A01 T00591004  RH  064%=      5-min Rain = 0
KAI1 140253Z 18011KT 06/M00 A3025 RMK A01 T00591004  RH  064%=      5-min Rain = 0
KAI1 140254Z 18011KT 06/M01 A3025 RMK A01 T00581005  RH  064%=      5-min Rain = 0
KAI1 140255Z 18011KT 06/M01 A3025 RMK A01 T00581005  RH  064%=      5-min Rain = 0
KAI1 140256Z 18011KT 06/M01 A3025 RMK A01 T00571005  RH  064%=      5-min Rain = 0
KAI1 140257Z 18011KT 06/M01 A3025 RMK A01 T00571005  RH  064%=      5-min Rain = 0
KAI1 140258Z 18011KT 06/M01 A3025 RMK A01 T00571005  RH  064%=      5-min Rain = 0
KAI1 140259Z 18011KT 06/M01 A3025 RMK A01 T00571005  RH  064%=      5-min Rain = 0
KAI1 140300Z 18011KT 06/M01 A3025 RMK A01 T00571005  RH  065%=      5-min Rain = 0
KAI1 140301Z 17010KT 06/M01 A3025 RMK A01 T00571005  RH  065%=      5-min Rain = 0
KAI1 140302Z 18010KT 06/M00 A3025 RMK A01 T00571004  RH  065%=      5-min Rain = 0
KAI1 140303Z 18010KT 06/M00 A3025 RMK A01 T00571004  RH  065%=      5-min Rain = 0
KAI1 140304Z 18010KT 06/M00 A3025 RMK A01 T00571003  RH  065%=      5-min Rain = 0
KAI1 140305Z 18010KT 06/M00 A3025 RMK A01 T00571003  RH  065%=      5-min Rain = 0
KAI1 140306Z 17010KT 06/M00 A3025 RMK A01 T00561004  RH  065%=      5-min Rain = 0
KAI1 140307Z 17010KT 06/M00 A3025 RMK A01 T00561004  RH  065%=      5-min Rain = 0
KAI1 140308Z 18010KT 06/M01 A3025 RMK A01 T00551005  RH  065%=      5-min Rain = 0
KAI1 140309Z 18009KT 05/M01 A3025 RMK A01 T00541006  RH  065%=      5-min Rain = 0
KAI1 140310Z 18009KT 05/M01 A3025 RMK A01 T00541006  RH  065%=      5-min Rain = 0
KAI1 140311Z 18009KT 05/M01 A3025 RMK A01 T00521007  RH  066%=      5-min Rain = 0
KAI1 140312Z 18009KT 05/M01 A3025 RMK A01 T00521006  RH  066%=      5-min Rain = 0
KAI1 140313Z 18010KT 05/M01 A3025 RMK A01 T00521006  RH  066%=      5-min Rain = 0
KAI1 140314Z 18010KT 05/M01 A3025 RMK A01 T00511007  RH  066%=      5-min Rain = 0
KAI1 140315Z 18010KT 05/M01 A3025 RMK A01 T00511006  RH  066%=      5-min Rain = 0
KAI1 140316Z 18010KT 05/M00 A3025 RMK A01 T00521004  RH  067%=      5-min Rain = 0
KAI1 140317Z 18009KT 05/M00 A3025 RMK A01 T00541001  RH  068%=      5-min Rain = 0
KAI1 140318Z 18009KT 06/00 A3025 RMK A01 T005600-0  RH  067%=      5-min Rain = 0
KAI1 140319Z 18009KT 06/M00 A3025 RMK A01 T00571001  RH  067%=      5-min Rain = 0
KAI1 140320Z 18008KT 06/M00 A3025 RMK A01 T00571002  RH  066%=      5-min Rain = 0
KAI1 140321Z 18008KT 06/M00 A3025 RMK A01 T00551003  RH  066%=      5-min Rain = 0
KAI1 140322Z 18009KT 05/M00 A3025 RMK A01 T00541003  RH  067%=      5-min Rain = 0
KAI1 140323Z 18009KT 05/M00 A3025 RMK A01 T00541002  RH  067%=      5-min Rain = 0
KAI1 140324Z 18009KT 05/M00 A3025 RMK A01 T00541002  RH  067%=      5-min Rain = 0
KAI1 140325Z 18009KT 05/M00 A3025 RMK A01 T00541001  RH  067%=      5-min Rain = 0
KAI1 140326Z 18009KT 05/M00 A3025 RMK A01 T00541001  RH  068%=      5-min Rain = 0
KAI1 140327Z 18009KT 06/M00 A3025 RMK A01 T00551002  RH  067%=      5-min Rain = 0
KAI1 140328Z 18009KT 05/M00 A3025 RMK A01 T00541003  RH  066%=      5-min Rain = 0
KAI1 140329Z 18009KT 05/M00 A3025 RMK A01 T00531004  RH  067%=      5-min Rain = 0
KAI1 140330Z 18009KT 05/M00 A3025 RMK A01 T00521004  RH  067%=      5-min Rain = 0
KAI1 140331Z 18009KT 05/M00 A3025 RMK A01 T00511004  RH  068%=      5-min Rain = 0
KAI1 140332Z 18009KT 05/M00 A3025 RMK A01 T00511004  RH  068%=      5-min Rain = 0
KAI1 140333Z 18009KT 05/M00 A3025 RMK A01 T00511003  RH  068%=      5-min Rain = 0
KAI1 140334Z 19010KT 05/M00 A3025 RMK A01 T00511002  RH  068%=      5-min Rain = 0
KAI1 140335Z 18010KT 05/M00 A3025 RMK A01 T00511003  RH  068%=      5-min Rain = 0
KAI1 140336Z 18010KT 05/M00 A3025 RMK A01 T00511003  RH  068%=      5-min Rain = 0
KAI1 140337Z 18010KT 05/M00 A3025 RMK A01 T00511003  RH  068%=      5-min Rain = 0
KAI1 140338Z 18011KT 05/M00 A3025 RMK A01 T00521002  RH  068%=      5-min Rain = 0
KAI1 140339Z 18011KT 05/M00 A3025 RMK A01 T00521001  RH  068%=      5-min Rain = 0
KAI1 140340Z 18011KT 05/M00 A3025 RMK A01 T00531001  RH  068%=      5-min Rain = 0
KAI1 140341Z 18011KT 05/M00 A3025 RMK A01 T00531001  RH  068%=      5-min Rain = 0
KAI1 140342Z 18011KT 05/M00 A3025 RMK A01 T00531001  RH  068%=      5-min Rain = 0
KAI1 140343Z 19011KT 05/00 A3025 RMK A01 T00540000  RH  068%=      5-min Rain = 0
KAI1 140344Z 19011KT 05/00 A3025 RMK A01 T00540000  RH  068%=      5-min Rain = 0
KAI1 140345Z 19011KT 05/00 A3025 RMK A01 T005400-0  RH  068%=      5-min Rain = 0
KAI1 140346Z 18011KT 05/00 A3025 RMK A01 T005400-0  RH  068%=      5-min Rain = 0
KAI1 140347Z 19011KT 05/00 A3025 RMK A01 T00540000  RH  068%=      5-min Rain = 0
KAI1 140348Z 19011KT 05/00 A3025 RMK A01 T00540001  RH  069%=      5-min Rain = 0
KAI1 140349Z 19011KT 05/00 A3025 RMK A01 T00540001  RH  069%=      5-min Rain = 0
KAI1 140350Z 19012KT 05/00 A3025 RMK A01 T00540001  RH  069%=      5-min Rain = 0
KAI1 140351Z 19012KT 05/00 A3025 RMK A01 T00540001  RH  069%=      5-min Rain = 0
KAI1 140352Z 19012KT 05/00 A3025 RMK A01 T00540001  RH  069%=      5-min Rain = 0
KAI1 140353Z 19012KT 06/00 A3025 RMK A01 T00550002  RH  069%=      5-min Rain = 0
KAI1 140354Z 18012KT 06/00 A3025 RMK A01 T00550003  RH  069%=      5-min Rain = 0
KAI1 140355Z 18011KT 06/00 A3025 RMK A01 T00550003  RH  069%=      5-min Rain = 0
KAI1 140356Z 19011KT 06/00 A3025 RMK A01 T00560004  RH  069%=      5-min Rain = 0
KAI1 140357Z 18012KT 06/00 A3025 RMK A01 T00570004  RH  069%=      5-min Rain = 0
KAI1 140358Z 19011KT 06/01 A3025 RMK A01 T00570005  RH  069%=      5-min Rain = 0
KAI1 140359Z 18011KT 06/01 A3025 RMK A01 T00580006  RH  069%=      5-min Rain = 0
KAI1 140400Z 18012KT 06/01 A3025 RMK A01 T00580005  RH  069%=      5-min Rain = 0
KAI1 140401Z 18010KT 06/01 A3025 RMK A01 T00580006  RH  069%=      5-min Rain = 0
KAI1 140402Z 18011KT 06/01 A3025 RMK A01 T00590007  RH  069%=      5-min Rain = 0
KAI1 140403Z 18011KT 06/01 A3025 RMK A01 T00590007  RH  069%=      5-min Rain = 0
KAI1 140404Z 18011KT 06/01 A3025 RMK A01 T00600007  RH  069%=      5-min Rain = 0
KAI1 140405Z 18011KT 06/01 A3025 RMK A01 T00610008  RH  069%=      5-min Rain = 0
KAI1 140406Z 18011KT 06/01 A3025 RMK A01 T00610009  RH  069%=      5-min Rain = 0
KAI1 140407Z 18011KT 06/01 A3025 RMK A01 T00610009  RH  069%=      5-min Rain = 0
KAI1 140408Z 18011KT 06/01 A3025 RMK A01 T00620010  RH  069%=      5-min Rain = 0
KAI1 140409Z 18011KT 06/01 A3025 RMK A01 T00630010  RH  069%=      5-min Rain = 0
KAI1 140410Z 19011KT 06/01 A3025 RMK A01 T00630011  RH  069%=      5-min Rain = 0
KAI1 140411Z 18011KT 06/01 A3025 RMK A01 T00630011  RH  069%=      5-min Rain = 0
KAI1 140412Z 18011KT 06/01 A3025 RMK A01 T00640011  RH  069%=      5-min Rain = 0
KAI1 140413Z 19012KT 06/01 A3025 RMK A01 T00640011  RH  069%=      5-min Rain = 0
KAI1 140414Z 19012KT 06/01 A3025 RMK A01 T00640012  RH  069%=      5-min Rain = 0
KAI1 140415Z 19012KT 06/01 A3025 RMK A01 T00640012  RH  069%=      5-min Rain = 0
KAI1 140416Z 19012KT 06/01 A3025 RMK A01 T00640012  RH  069%=      5-min Rain = 0
KAI1 140417Z 19012KT 06/01 A3025 RMK A01 T00640013  RH  070%=      5-min Rain = 0
KAI1 140418Z 19012KT 07/02 A3025 RMK A01 T00650015  RH  070%=      5-min Rain = 0
KAI1 140419Z 18012KT 07/02 A3025 RMK A01 T00660015  RH  070%=      5-min Rain = 0
KAI1 140420Z 19012KT 07/02 A3025 RMK A01 T00660015  RH  070%=      5-min Rain = 0
KAI1 140421Z 18012KT 07/02 A3025 RMK A01 T00660016  RH  070%=      5-min Rain = 0
KAI1 140422Z 18012KT 07/02 A3025 RMK A01 T00670016  RH  070%=      5-min Rain = 0
KAI1 140423Z 18011KT 07/02 A3025 RMK A01 T00670016  RH  070%=      5-min Rain = 0
KAI1 140424Z 19011KT 07/02 A3025 RMK A01 T00670017  RH  070%=      5-min Rain = 0
KAI1 140425Z 18011KT 07/02 A3025 RMK A01 T00680017  RH  070%=      5-min Rain = 0
KAI1 140426Z 18011KT 07/02 A3025 RMK A01 T00680018  RH  070%=      5-min Rain = 0
KAI1 140427Z 18010KT 07/02 A3025 RMK A01 T00680018  RH  070%=      5-min Rain = 0
KAI1 140428Z 19009KT 07/02 A3025 RMK A01 T00690019  RH  070%=      5-min Rain = 0
KAI1 140429Z 19009KT 07/02 A3025 RMK A01 T00690019  RH  070%=      5-min Rain = 0
KAI1 140430Z 19009KT 07/02 A3025 RMK A01 T00690019  RH  071%=      5-min Rain = 0
KAI1 140431Z 19009KT 07/02 A3025 RMK A01 T00700020  RH  071%=      5-min Rain = 0
KAI1 140432Z 19009KT 07/02 A3025 RMK A01 T00700020  RH  071%=      5-min Rain = 0
KAI1 140433Z 19008KT 07/02 A3025 RMK A01 T00710021  RH  070%=      5-min Rain = 0
KAI1 140434Z 19008KT 07/02 A3025 RMK A01 T00710021  RH  071%=      5-min Rain = 0
KAI1 140435Z 19008KT 07/02 A3024 RMK A01 T00710021  RH  071%=      5-min Rain = 0
KAI1 140436Z 19008KT 07/02 A3024 RMK A01 T00710020  RH  070%=      5-min Rain = 0
KAI1 140437Z 19008KT 07/02 A3024 RMK A01 T00700020  RH  070%=      5-min Rain = 0
KAI1 140438Z 19009KT 07/02 A3024 RMK A01 T00700020  RH  071%=      5-min Rain = 0
KAI1 140439Z 19009KT 07/02 A3025 RMK A01 T00700020  RH  071%=      5-min Rain = 0
KAI1 140440Z 19009KT 07/02 A3025 RMK A01 T00700020  RH  071%=      5-min Rain = 0
KAI1 140441Z 19009KT 07/02 A3025 RMK A01 T00690020  RH  071%=      5-min Rain = 0
KAI1 140442Z 19009KT 07/02 A3025 RMK A01 T00690019  RH  071%=      5-min Rain = 0
KAI1 140443Z 19009KT 07/02 A3025 RMK A01 T00690019  RH  071%=      5-min Rain = 0
KAI1 140444Z 20009KT 07/02 A3025 RMK A01 T00680020  RH  071%=      5-min Rain = 0
KAI1 140445Z 19009KT 07/02 A3025 RMK A01 T00690020  RH  071%=      5-min Rain = 0
KAI1 140446Z 20009KT 07/02 A3025 RMK A01 T00690020  RH  071%=      5-min Rain = 0
KAI1 140447Z 19009KT 07/02 A3025 RMK A01 T00690020  RH  071%=      5-min Rain = 0
KAI1 140448Z 20008KT 07/02 A3025 RMK A01 T00680019  RH  071%=      5-min Rain = 0
KAI1 140449Z 19008KT 07/02 A3025 RMK A01 T00670019  RH  071%=      5-min Rain = 0
KAI1 140450Z 19008KT 07/02 A3025 RMK A01 T00660018  RH  071%=      5-min Rain = 0
KAI1 140451Z 19008KT 07/02 A3024 RMK A01 T00660017  RH  071%=      5-min Rain = 0
KAI1 140452Z 19007KT 06/02 A3024 RMK A01 T00640016  RH  071%=      5-min Rain = 0
KAI1 140453Z 19007KT 06/02 A3024 RMK A01 T00630015  RH  071%=      5-min Rain = 0
KAI1 140454Z 19007KT 06/02 A3024 RMK A01 T00620015  RH  072%=      5-min Rain = 0
KAI1 140455Z 19007KT 06/01 A3024 RMK A01 T00610014  RH  072%=      5-min Rain = 0
KAI1 140456Z 19006KT 06/01 A3025 RMK A01 T00590013  RH  072%=      5-min Rain = 0
KAI1 140457Z 19006KT 06/01 A3025 RMK A01 T00580013  RH  073%=      5-min Rain = 0
KAI1 140458Z 20006KT 06/01 A3025 RMK A01 T00580013  RH  073%=      5-min Rain = 0
KAI1 140459Z 20006KT 06/01 A3025 RMK A01 T00570013  RH  073%=      5-min Rain = 0
KAI1 140500Z 20006KT 06/01 A3025 RMK A01 T00570013  RH  073%=      5-min Rain = 0
KAI1 140501Z 20005KT 06/01 A3025 RMK A01 T00560013  RH  074%=      5-min Rain = 0
KAI1 140502Z 20005KT 06/01 A3025 RMK A01 T00560013  RH  074%=      5-min Rain = 0
KAI1 140503Z 21005KT 06/01 A3025 RMK A01 T00560014  RH  074%=      5-min Rain = 0
KAI1 140504Z 20005KT 06/01 A3025 RMK A01 T00560014  RH  074%=      5-min Rain = 0
KAI1 140505Z 20005KT 06/01 A3025 RMK A01 T00560013  RH  074%=      5-min Rain = 0
KAI1 140506Z 20006KT 06/01 A3025 RMK A01 T00560013  RH  074%=      5-min Rain = 0
KAI1 140507Z 20006KT 06/01 A3025 RMK A01 T00560013  RH  074%=      5-min Rain = 0
KAI1 140508Z 20006KT 06/01 A3025 RMK A01 T00560012  RH  073%=      5-min Rain = 0
KAI1 140509Z 20006KT 06/01 A3025 RMK A01 T00560012  RH  073%=      5-min Rain = 0
KAI1 140510Z 21005KT 06/01 A3025 RMK A01 T00560011  RH  073%=      5-min Rain = 0
KAI1 140511Z 21005KT 06/01 A3025 RMK A01 T00550011  RH  073%=      5-min Rain = 0
KAI1 140512Z 21006KT 05/01 A3025 RMK A01 T00540010  RH  073%=      5-min Rain = 0
KAI1 140513Z 20006KT 05/01 A3025 RMK A01 T00530010  RH  074%=      5-min Rain = 0
KAI1 140514Z 20007KT 05/01 A3025 RMK A01 T00520009  RH  074%=      5-min Rain = 0
KAI1 140515Z 20007KT 05/01 A3025 RMK A01 T00510010  RH  074%=      5-min Rain = 0
KAI1 140516Z 20008KT 05/01 A3025 RMK A01 T00500009  RH  075%=      5-min Rain = 0
KAI1 140517Z 20008KT 05/01 A3025 RMK A01 T00500009  RH  075%=      5-min Rain = 0
KAI1 140518Z 20008KT 05/01 A3024 RMK A01 T00500010  RH  075%=      5-min Rain = 0
KAI1 140519Z 20008KT 05/01 A3024 RMK A01 T00500011  RH  076%=      5-min Rain = 0
KAI1 140520Z 20008KT 05/01 A3024 RMK A01 T00510011  RH  076%=      5-min Rain = 0
KAI1 140521Z 20008KT 05/01 A3024 RMK A01 T00520012  RH  075%=      5-min Rain = 0
KAI1 140522Z 20008KT 05/01 A3024 RMK A01 T00520012  RH  075%=      5-min Rain = 0
KAI1 140523Z 20008KT 05/01 A3024 RMK A01 T00520011  RH  075%=      5-min Rain = 0
KAI1 140524Z 20008KT 05/01 A3024 RMK A01 T00520011  RH  075%=      5-min Rain = 0
KAI1 140525Z 20008KT 05/01 A3024 RMK A01 T00520012  RH  075%=      5-min Rain = 0
KAI1 140526Z 20008KT 05/01 A3024 RMK A01 T00520012  RH  075%=      5-min Rain = 0
KAI1 140527Z 20008KT 05/01 A3024 RMK A01 T00520012  RH  075%=      5-min Rain = 0
KAI1 140528Z 20008KT 05/01 A3024 RMK A01 T00520013  RH  076%=      5-min Rain = 0
KAI1 140529Z 20008KT 05/01 A3024 RMK A01 T00520013  RH  076%=      5-min Rain = 0
KAI1 140530Z 20008KT 05/01 A3024 RMK A01 T00520012  RH  075%=      5-min Rain = 0
KAI1 140531Z 20009KT 05/01 A3024 RMK A01 T00520013  RH  076%=      5-min Rain = 0
KAI1 140532Z 20009KT 05/01 A3024 RMK A01 T00520013  RH  076%=      5-min Rain = 0
KAI1 140533Z 20009KT 05/01 A3024 RMK A01 T00520013  RH  076%=      5-min Rain = 0
KAI1 140534Z 19009KT 05/01 A3024 RMK A01 T00530013  RH  076%=      5-min Rain = 0
KAI1 140535Z 19009KT 05/01 A3024 RMK A01 T00530014  RH  076%=      5-min Rain = 0
KAI1 140536Z 19009KT 05/02 A3024 RMK A01 T00540015  RH  076%=      5-min Rain = 0
KAI1 140537Z 19008KT 05/02 A3024 RMK A01 T00540015  RH  076%=      5-min Rain = 0
KAI1 140538Z 19008KT 06/02 A3024 RMK A01 T00560017  RH  076%=      5-min Rain = 0
KAI1 140539Z 19009KT 06/02 A3024 RMK A01 T00560017  RH  076%=      5-min Rain = 0
KAI1 140540Z 19009KT 06/02 A3024 RMK A01 T00570016  RH  075%=      5-min Rain = 0
KAI1 140541Z 18009KT 06/02 A3024 RMK A01 T00570016  RH  075%=      5-min Rain = 0
KAI1 140542Z 18008KT 06/02 A3024 RMK A01 T00560015  RH  075%=      5-min Rain = 0
KAI1 140543Z 18009KT 06/01 A3024 RMK A01 T00550013  RH  074%=      5-min Rain = 0
KAI1 140544Z 18009KT 05/01 A3023 RMK A01 T00540012  RH  074%=      5-min Rain = 0
KAI1 140545Z 18009KT 05/01 A3023 RMK A01 T00540013  RH  075%=      5-min Rain = 0
KAI1 140546Z 18009KT 05/01 A3023 RMK A01 T00540014  RH  075%=      5-min Rain = 0
KAI1 140547Z 18009KT 05/01 A3023 RMK A01 T00540014  RH  076%=      5-min Rain = 0
KAI1 140548Z 19009KT 05/02 A3023 RMK A01 T00540016  RH  076%=      5-min Rain = 0
KAI1 140549Z 19009KT 05/02 A3024 RMK A01 T00540016  RH  076%=      5-min Rain = 0
KAI1 140550Z 19009KT 06/02 A3024 RMK A01 T00560017  RH  076%=      5-min Rain = 0
KAI1 140551Z 19009KT 06/02 A3024 RMK A01 T00570018  RH  076%=      5-min Rain = 0
KAI1 140552Z 19009KT 06/02 A3024 RMK A01 T00570018  RH  076%=      5-min Rain = 0
KAI1 140553Z 19009KT 06/02 A3023 RMK A01 T00580018  RH  076%=      5-min Rain = 0
KAI1 140554Z 19009KT 06/02 A3023 RMK A01 T00580019  RH  076%=      5-min Rain = 0
KAI1 140555Z 19009KT 06/02 A3023 RMK A01 T00590019  RH  075%=      5-min Rain = 0
KAI1 140556Z 19009KT 06/02 A3023 RMK A01 T00600020  RH  076%=      5-min Rain = 0
KAI1 140557Z 19008KT 06/02 A3023 RMK A01 T00600020  RH  075%=      5-min Rain = 0
KAI1 140558Z 19008KT 06/02 A3023 RMK A01 T00610021  RH  075%=      5-min Rain = 0
KAI1 140559Z 19008KT 06/02 A3023 RMK A01 T00610021  RH  075%=      5-min Rain = 0

Page generated in 0.121 seconds.